GEFSCGP_prec_meanprecacc_138.txt.gz
Total_Precipitation_Accumulation
0.00 0.00 0.01 0.01 0.01 0.01 0.03 0.04 0.08 0.10 0.08 0.10 0.22 0.48 0.65 0.76 0.98 1.00 0.98 1.10 1.22 1.34 1.64 1.96 2.21 2.70 3.23 3.53 3.86 4.03 3.96 3.78 3.50 3.12 2.80 2.53 2.33 2.20 2.00 1.86 1.76 1.72 1.69 1.76
0.01 0.03 0.02 0.01 0.01 0.02 0.04 0.06 0.09 0.12 0.10 0.14 0.31 0.53 0.77 0.77 0.85 0.90 0.81 0.86 0.99 1.29 1.56 2.01 2.17 2.33 2.74 3.17 3.59 3.83 3.99 3.83 3.39 2.93 2.64 2.49 2.43 2.12 1.84 1.80 1.76 1.73 1.82 1.80
0.01 0.02 0.02 0.01 0.02 0.04 0.06 0.07 0.09 0.09 0.11 0.20 0.32 0.70 0.94 0.81 0.76 0.80 0.79 0.85 1.00 1.38 1.83 2.08 2.13 2.17 2.39 2.74 2.99 3.08 3.19 3.11 2.80 2.62 2.52 2.44 2.40 2.09 1.95 1.99 1.99 1.95 1.98 1.93
0.01 0.01 0.02 0.03 0.04 0.04 0.08 0.06 0.05 0.06 0.13 0.30 0.33 0.75 1.15 0.98 0.78 0.84 0.91 0.88 1.18 1.50 1.51 1.58 1.79 2.00 2.18 2.37 2.60 2.73 2.70 2.57 2.32 2.23 2.24 2.21 2.10 2.03 2.16 2.37 2.26 2.03 1.85 1.71
0.03 0.03 0.03 0.04 0.04 0.04 0.06 0.05 0.06 0.08 0.13 0.27 0.34 0.54 1.00 1.01 1.03 0.92 0.88 0.96 1.23 1.26 1.19 1.21 1.38 1.61 1.68 1.93 2.12 2.27 2.34 2.33 2.16 2.06 2.02 2.06 1.99 1.96 1.94 1.90 1.83 1.69 1.52 1.31
0.04 0.04 0.04 0.03 0.03 0.04 0.05 0.06 0.12 0.18 0.29 0.59 0.43 0.44 0.84 1.01 0.87 0.73 0.81 0.87 1.00 1.00 1.00 1.06 1.16 1.31 1.40 1.48 1.52 1.56 1.67 1.81 1.80 1.74 1.73 1.72 1.64 1.55 1.45 1.30 1.24 1.16 1.05 0.88
0.09 0.10 0.08 0.05 0.05 0.06 0.05 0.09 0.37 0.69 0.91 0.94 0.49 0.53 0.94 0.80 0.60 0.61 0.75 0.75 0.70 0.69 0.73 0.87 0.92 0.97 1.02 1.05 1.06 1.11 1.27 1.46 1.41 1.29 1.29 1.32 1.27 1.20 1.11 1.04 0.96 0.89 0.80 0.69
0.16 0.21 0.12 0.07 0.07 0.07 0.08 0.09 0.30 0.53 0.59 0.66 0.56 0.89 1.27 0.83 0.62 0.66 0.67 0.63 0.56 0.54 0.54 0.64 0.77 0.87 0.85 0.81 0.83 0.85 1.01 1.11 1.03 0.95 0.97 0.99 0.97 0.95 0.88 0.85 0.72 0.67 0.66 0.67
0.11 0.11 0.07 0.07 0.10 0.10 0.09 0.07 0.12 0.23 0.27 0.40 0.62 0.92 0.99 0.59 0.51 0.57 0.56 0.53 0.54 0.53 0.51 0.51 0.55 0.64 0.65 0.61 0.59 0.64 0.80 0.89 0.89 0.87 0.85 0.82 0.79 0.76 0.68 0.62 0.57 0.52 0.54 0.57
0.04 0.06 0.08 0.07 0.08 0.10 0.10 0.10 0.14 0.19 0.27 0.41 0.55 0.85 0.95 0.64 0.53 0.38 0.31 0.27 0.27 0.28 0.29 0.27 0.29 0.31 0.33 0.38 0.46 0.54 0.60 0.64 0.66 0.66 0.70 0.70 0.67 0.59 0.52 0.47 0.43 0.42 0.42 0.47
0.04 0.04 0.07 0.08 0.10 0.12 0.12 0.11 0.12 0.13 0.16 0.29 0.54 0.70 0.50 0.42 0.37 0.32 0.25 0.19 0.17 0.15 0.17 0.21 0.22 0.26 0.29 0.33 0.43 0.52 0.55 0.58 0.61 0.59 0.60 0.58 0.55 0.52 0.46 0.40 0.37 0.37 0.40 0.43
0.03 0.04 0.06 0.12 0.16 0.15 0.13 0.11 0.11 0.14 0.13 0.16 0.27 0.38 0.23 0.25 0.25 0.22 0.21 0.20 0.21 0.20 0.20 0.22 0.22 0.29 0.34 0.33 0.34 0.41 0.46 0.52 0.63 0.73 0.81 0.81 0.72 0.63 0.53 0.42 0.38 0.36 0.38 0.42
0.05 0.05 0.09 0.25 0.36 0.24 0.15 0.12 0.12 0.12 0.09 0.13 0.23 0.34 0.20 0.16 0.16 0.19 0.36 0.44 0.35 0.24 0.17 0.17 0.20 0.25 0.30 0.34 0.36 0.40 0.44 0.48 0.59 0.76 1.00 1.11 1.02 0.87 0.69 0.50 0.36 0.31 0.31 0.34
0.07 0.05 0.08 0.26 0.38 0.31 0.23 0.16 0.12 0.10 0.11 0.13 0.16 0.32 0.27 0.18 0.14 0.12 0.15 0.17 0.19 0.17 0.13 0.12 0.13 0.20 0.25 0.33 0.41 0.45 0.49 0.49 0.56 0.69 0.85 0.91 0.84 0.75 0.63 0.45 0.31 0.25 0.26 0.30
0.11 0.07 0.05 0.09 0.16 0.19 0.20 0.20 0.16 0.14 0.10 0.16 0.15 0.21 0.21 0.15 0.15 0.16 0.17 0.18 0.18 0.17 0.13 0.11 0.14 0.20 0.23 0.28 0.36 0.37 0.33 0.28 0.33 0.46 0.52 0.57 0.52 0.43 0.39 0.35 0.30 0.27 0.28 0.30
0.16 0.16 0.12 0.11 0.14 0.18 0.21 0.21 0.16 0.11 0.08 0.08 0.09 0.11 0.11 0.14 0.18 0.22 0.22 0.19 0.17 0.15 0.11 0.11 0.15 0.20 0.21 0.20 0.21 0.18 0.17 0.19 0.23 0.31 0.37 0.44 0.46 0.40 0.33 0.29 0.27 0.27 0.29 0.34
0.19 0.23 0.20 0.16 0.16 0.18 0.26 0.26 0.19 0.11 0.09 0.12 0.14 0.13 0.12 0.13 0.17 0.21 0.22 0.19 0.18 0.19 0.11 0.09 0.12 0.14 0.11 0.11 0.12 0.13 0.16 0.21 0.28 0.34 0.39 0.47 0.49 0.45 0.39 0.32 0.32 0.32 0.34 0.35
0.29 0.30 0.26 0.20 0.25 0.36 0.25 0.19 0.19 0.19 0.17 0.17 0.19 0.17 0.18 0.20 0.23 0.24 0.27 0.24 0.19 0.18 0.13 0.08 0.09 0.10 0.10 0.10 0.12 0.17 0.23 0.31 0.35 0.41 0.47 0.55 0.59 0.53 0.47 0.46 0.47 0.48 0.46 0.44
0.26 0.39 0.36 0.31 0.34 0.34 0.28 0.19 0.21 0.25 0.28 0.24 0.27 0.25 0.27 0.27 0.28 0.27 0.23 0.20 0.18 0.13 0.15 0.14 0.11 0.13 0.15 0.15 0.16 0.23 0.31 0.38 0.46 0.51 0.59 0.65 0.71 0.68 0.64 0.65 0.65 0.67 0.64 0.56
0.22 0.35 0.45 0.38 0.43 0.42 0.34 0.26 0.26 0.33 0.57 0.45 0.40 0.36 0.32 0.33 0.36 0.32 0.26 0.28 0.26 0.19 0.16 0.15 0.14 0.16 0.18 0.20 0.27 0.36 0.40 0.44 0.52 0.59 0.71 0.82 0.87 0.89 0.88 0.90 0.89 0.84 0.79 0.69
0.42 0.48 0.51 0.50 0.48 0.45 0.39 0.36 0.36 0.59 0.77 0.54 0.40 0.38 0.38 0.44 0.45 0.43 0.35 0.34 0.30 0.23 0.22 0.18 0.17 0.21 0.27 0.33 0.42 0.51 0.58 0.65 0.66 0.70 0.78 0.90 0.98 1.03 1.08 1.16 1.12 1.04 0.97 0.93
0.53 0.61 0.59 0.58 0.67 0.68 0.51 0.49 0.66 0.76 0.63 0.65 0.57 0.52 0.51 0.47 0.39 0.36 0.34 0.34 0.31 0.27 0.28 0.27 0.27 0.33 0.37 0.44 0.53 0.62 0.68 0.67 0.72 0.77 0.84 0.89 0.94 0.93 0.97 1.15 1.20 1.18 1.16 1.08
0.48 0.59 0.65 0.69 0.75 0.68 0.55 0.60 0.70 0.73 0.71 0.67 0.63 0.58 0.50 0.46 0.40 0.31 0.28 0.27 0.26 0.24 0.26 0.26 0.31 0.42 0.51 0.61 0.69 0.78 0.75 0.78 0.79 0.84 0.93 0.99 1.00 1.03 1.10 1.16 1.19 1.22 1.26 1.22
0.51 0.53 0.64 0.79 0.82 0.78 0.66 0.56 0.51 0.57 0.60 0.59 0.55 0.54 0.49 0.45 0.41 0.37 0.31 0.25 0.24 0.23 0.22 0.23 0.27 0.36 0.45 0.55 0.64 0.76 0.84 0.89 0.92 0.98 1.03 1.10 1.16 1.14 1.14 1.24 1.29 1.31 1.35 1.39
0.58 0.57 0.67 0.84 0.77 0.63 0.71 0.73 0.66 0.68 0.72 0.69 0.58 0.54 0.54 0.48 0.46 0.39 0.34 0.30 0.25 0.23 0.22 0.23 0.29 0.35 0.42 0.50 0.58 0.66 0.74 0.84 0.91 0.97 1.01 1.04 1.08 1.13 1.17 1.20 1.25 1.21 1.25 1.23
0.54 0.63 0.77 0.89 0.80 0.73 0.73 0.70 0.65 0.68 0.67 0.67 0.69 0.70 0.55 0.45 0.49 0.46 0.39 0.33 0.31 0.29 0.29 0.31 0.33 0.36 0.41 0.49 0.61 0.68 0.77 0.90 1.01 1.08 1.09 1.04 1.01 1.07 1.12 1.17 1.17 1.08 1.00 0.97

GEFSCGP_prec_meanprecacc_144.txt.gz
Total_Precipitation_Accumulation
0.00 0.00 0.01 0.01 0.01 0.01 0.03 0.05 0.08 0.11 0.09 0.10 0.22 0.48 0.66 0.76 0.98 1.00 1.00 1.11 1.23 1.36 1.66 2.01 2.26 2.74 3.29 3.60 4.00 4.17 4.12 3.97 3.66 3.26 2.92 2.65 2.44 2.30 2.09 1.94 1.83 1.78 1.74 1.82
0.01 0.03 0.02 0.01 0.01 0.02 0.04 0.07 0.09 0.13 0.11 0.14 0.31 0.53 0.77 0.77 0.85 0.90 0.81 0.86 1.00 1.31 1.58 2.07 2.24 2.39 2.81 3.25 3.73 3.99 4.13 3.97 3.53 3.05 2.75 2.60 2.54 2.22 1.93 1.89 1.86 1.80 1.88 1.86
0.01 0.02 0.02 0.01 0.02 0.04 0.06 0.07 0.09 0.09 0.11 0.20 0.32 0.70 0.95 0.83 0.78 0.81 0.79 0.85 1.00 1.40 1.85 2.11 2.21 2.29 2.46 2.83 3.10 3.22 3.32 3.23 2.93 2.75 2.66 2.59 2.56 2.21 2.07 2.12 2.11 2.03 2.04 1.98
0.01 0.01 0.02 0.03 0.04 0.04 0.08 0.06 0.05 0.06 0.13 0.31 0.34 0.77 1.18 1.02 0.84 0.87 0.93 0.89 1.19 1.51 1.53 1.60 1.84 2.07 2.24 2.44 2.70 2.88 2.85 2.71 2.47 2.39 2.38 2.33 2.19 2.11 2.24 2.46 2.35 2.11 1.92 1.77
0.03 0.03 0.03 0.04 0.04 0.04 0.06 0.05 0.06 0.08 0.13 0.28 0.35 0.56 1.02 1.06 1.09 0.97 0.93 0.99 1.23 1.27 1.20 1.23 1.41 1.66 1.75 2.00 2.21 2.40 2.49 2.48 2.33 2.23 2.18 2.21 2.12 2.09 2.07 2.02 1.94 1.79 1.60 1.38
0.04 0.04 0.04 0.03 0.03 0.04 0.05 0.06 0.12 0.18 0.29 0.62 0.46 0.48 0.87 1.03 0.93 0.81 0.85 0.88 1.00 1.00 1.01 1.08 1.19 1.36 1.46 1.55 1.61 1.66 1.81 1.97 1.96 1.90 1.90 1.89 1.79 1.70 1.60 1.42 1.34 1.24 1.12 0.95
0.09 0.10 0.08 0.05 0.05 0.06 0.05 0.09 0.38 0.73 0.96 1.00 0.53 0.56 0.97 0.81 0.61 0.62 0.75 0.75 0.70 0.69 0.74 0.89 0.95 1.02 1.07 1.11 1.13 1.21 1.39 1.60 1.54 1.43 1.46 1.48 1.43 1.36 1.25 1.15 1.05 0.98 0.86 0.73
0.16 0.21 0.12 0.07 0.07 0.07 0.08 0.09 0.33 0.61 0.72 0.78 0.63 0.93 1.30 0.84 0.62 0.66 0.67 0.63 0.56 0.54 0.54 0.65 0.79 0.91 0.91 0.86 0.89 0.94 1.11 1.23 1.17 1.07 1.12 1.17 1.13 1.10 1.01 0.97 0.82 0.75 0.72 0.72
0.11 0.11 0.07 0.07 0.10 0.10 0.09 0.08 0.14 0.27 0.33 0.50 0.73 0.99 1.02 0.60 0.52 0.59 0.56 0.54 0.56 0.54 0.51 0.51 0.56 0.66 0.69 0.65 0.65 0.70 0.89 1.01 1.03 0.99 1.00 1.00 0.95 0.91 0.81 0.73 0.65 0.58 0.62 0.64
0.04 0.06 0.08 0.07 0.08 0.10 0.10 0.10 0.15 0.21 0.30 0.46 0.66 0.93 0.99 0.66 0.54 0.39 0.31 0.27 0.30 0.29 0.29 0.28 0.30 0.34 0.38 0.43 0.52 0.61 0.68 0.75 0.77 0.77 0.80 0.81 0.82 0.75 0.66 0.57 0.50 0.49 0.50 0.55
0.04 0.04 0.07 0.08 0.10 0.12 0.12 0.11 0.12 0.15 0.17 0.32 0.62 0.78 0.54 0.46 0.40 0.35 0.28 0.22 0.18 0.15 0.17 0.21 0.25 0.31 0.36 0.40 0.47 0.58 0.63 0.69 0.72 0.69 0.68 0.69 0.67 0.66 0.59 0.50 0.45 0.44 0.48 0.52
0.04 0.04 0.06 0.13 0.17 0.15 0.14 0.11 0.11 0.15 0.14 0.18 0.31 0.46 0.31 0.31 0.30 0.25 0.25 0.24 0.22 0.20 0.20 0.22 0.24 0.33 0.40 0.45 0.44 0.46 0.52 0.59 0.71 0.82 0.90 0.92 0.84 0.75 0.65 0.51 0.44 0.44 0.45 0.48
0.05 0.05 0.10 0.27 0.39 0.25 0.16 0.12 0.12 0.13 0.10 0.15 0.28 0.43 0.24 0.19 0.24 0.26 0.38 0.46 0.36 0.24 0.17 0.18 0.21 0.27 0.33 0.41 0.46 0.45 0.49 0.53 0.64 0.83 1.09 1.20 1.11 0.96 0.77 0.57 0.42 0.38 0.37 0.40
0.07 0.05 0.09 0.28 0.41 0.35 0.25 0.16 0.12 0.10 0.12 0.15 0.18 0.36 0.31 0.23 0.23 0.21 0.18 0.20 0.21 0.17 0.13 0.13 0.16 0.25 0.30 0.37 0.46 0.49 0.53 0.53 0.60 0.74 0.91 0.98 0.89 0.79 0.68 0.50 0.36 0.30 0.31 0.35
0.11 0.07 0.05 0.10 0.19 0.21 0.22 0.21 0.17 0.14 0.11 0.19 0.21 0.26 0.26 0.21 0.24 0.24 0.22 0.20 0.19 0.17 0.13 0.13 0.17 0.24 0.29 0.32 0.40 0.41 0.37 0.33 0.38 0.50 0.56 0.62 0.56 0.47 0.43 0.40 0.36 0.33 0.33 0.35
0.16 0.16 0.12 0.12 0.15 0.19 0.24 0.23 0.17 0.11 0.08 0.11 0.16 0.20 0.19 0.19 0.24 0.28 0.25 0.20 0.19 0.17 0.12 0.12 0.18 0.23 0.24 0.24 0.25 0.22 0.23 0.25 0.29 0.36 0.41 0.49 0.51 0.44 0.37 0.34 0.33 0.32 0.33 0.39
0.20 0.24 0.21 0.17 0.17 0.19 0.28 0.29 0.21 0.12 0.11 0.14 0.20 0.23 0.18 0.18 0.21 0.26 0.27 0.23 0.20 0.20 0.12 0.10 0.14 0.17 0.16 0.15 0.16 0.18 0.21 0.28 0.35 0.42 0.48 0.54 0.55 0.51 0.44 0.38 0.39 0.39 0.41 0.44
0.34 0.34 0.28 0.23 0.28 0.38 0.28 0.22 0.22 0.22 0.19 0.19 0.25 0.23 0.23 0.26 0.31 0.33 0.36 0.30 0.22 0.19 0.14 0.10 0.11 0.12 0.14 0.15 0.17 0.21 0.28 0.37 0.41 0.49 0.57 0.66 0.69 0.61 0.56 0.56 0.58 0.59 0.59 0.57
0.28 0.42 0.38 0.35 0.41 0.37 0.32 0.22 0.24 0.29 0.34 0.28 0.32 0.33 0.33 0.34 0.34 0.33 0.30 0.24 0.20 0.15 0.16 0.15 0.12 0.15 0.17 0.17 0.20 0.30 0.40 0.47 0.55 0.60 0.69 0.76 0.81 0.80 0.78 0.78 0.77 0.79 0.76 0.67
0.25 0.39 0.50 0.45 0.53 0.51 0.42 0.30 0.28 0.38 0.65 0.47 0.43 0.43 0.38 0.40 0.44 0.40 0.32 0.30 0.27 0.21 0.18 0.18 0.16 0.19 0.22 0.25 0.32 0.43 0.50 0.58 0.67 0.74 0.88 1.00 1.08 1.09 1.08 1.09 1.06 0.99 0.94 0.83
0.48 0.54 0.57 0.57 0.58 0.57 0.46 0.39 0.38 0.66 0.89 0.59 0.43 0.44 0.46 0.55 0.54 0.49 0.38 0.36 0.32 0.24 0.24 0.20 0.20 0.25 0.32 0.39 0.48 0.60 0.70 0.80 0.78 0.83 0.96 1.14 1.22 1.27 1.30 1.36 1.31 1.24 1.16 1.11
0.61 0.69 0.66 0.67 0.77 0.82 0.60 0.55 0.76 0.89 0.73 0.71 0.62 0.56 0.55 0.54 0.45 0.40 0.36 0.35 0.33 0.29 0.31 0.29 0.29 0.36 0.42 0.52 0.60 0.70 0.78 0.79 0.82 0.88 0.98 1.08 1.15 1.15 1.20 1.37 1.41 1.41 1.38 1.30
0.55 0.67 0.72 0.79 0.86 0.76 0.62 0.68 0.77 0.80 0.79 0.75 0.70 0.62 0.54 0.51 0.45 0.35 0.30 0.29 0.27 0.27 0.29 0.29 0.33 0.45 0.55 0.66 0.76 0.86 0.83 0.87 0.89 0.94 1.06 1.14 1.17 1.21 1.29 1.34 1.36 1.39 1.43 1.42
0.57 0.58 0.70 0.87 0.89 0.83 0.71 0.62 0.57 0.61 0.64 0.63 0.59 0.57 0.54 0.50 0.46 0.41 0.33 0.27 0.26 0.26 0.25 0.27 0.32 0.41 0.50 0.59 0.68 0.82 0.92 0.99 1.03 1.07 1.13 1.21 1.28 1.27 1.28 1.38 1.45 1.48 1.53 1.57
0.66 0.63 0.75 0.93 0.86 0.71 0.78 0.79 0.71 0.72 0.76 0.73 0.63 0.60 0.60 0.52 0.49 0.42 0.37 0.33 0.29 0.27 0.26 0.28 0.34 0.41 0.47 0.54 0.62 0.71 0.80 0.92 1.01 1.07 1.10 1.13 1.19 1.25 1.32 1.38 1.43 1.39 1.44 1.41
0.60 0.69 0.85 0.99 0.90 0.84 0.85 0.80 0.72 0.75 0.71 0.71 0.74 0.76 0.60 0.50 0.52 0.49 0.42 0.35 0.34 0.32 0.33 0.36 0.38 0.40 0.44 0.52 0.63 0.72 0.82 0.96 1.09 1.18 1.18 1.12 1.10 1.17 1.23 1.29 1.29 1.21 1.12 1.08

GEFSCGP_prec_meanprecacc_150.txt.gz
Total_Precipitation_Accumulation
0.00 0.00 0.01 0.01 0.01 0.01 0.03 0.06 0.09 0.12 0.10 0.11 0.23 0.49 0.67 0.78 1.00 1.03 1.07 1.22 1.31 1.43 1.72 2.07 2.36 2.87 3.43 3.75 4.14 4.28 4.23 4.08 3.76 3.35 3.02 2.76 2.54 2.39 2.17 2.01 1.91 1.83 1.77 1.85
0.01 0.03 0.02 0.01 0.01 0.02 0.04 0.07 0.09 0.13 0.13 0.16 0.32 0.54 0.78 0.80 0.88 0.93 0.85 0.93 1.11 1.45 1.67 2.13 2.34 2.54 2.96 3.38 3.84 4.11 4.24 4.09 3.65 3.14 2.82 2.68 2.65 2.35 2.07 2.02 1.99 1.86 1.92 1.89
0.01 0.02 0.02 0.01 0.02 0.04 0.06 0.07 0.09 0.10 0.12 0.22 0.34 0.72 0.97 0.85 0.82 0.86 0.86 0.93 1.09 1.54 1.98 2.18 2.28 2.40 2.60 2.96 3.21 3.33 3.45 3.38 3.10 2.91 2.79 2.70 2.67 2.36 2.24 2.26 2.22 2.09 2.08 2.02
0.01 0.01 0.02 0.03 0.04 0.04 0.08 0.06 0.05 0.06 0.13 0.33 0.36 0.82 1.24 1.06 0.89 0.94 1.01 0.98 1.26 1.59 1.60 1.67 1.91 2.17 2.33 2.54 2.82 3.02 3.05 2.91 2.66 2.56 2.51 2.41 2.25 2.18 2.32 2.52 2.42 2.16 1.97 1.82
0.03 0.03 0.03 0.04 0.04 0.04 0.06 0.05 0.06 0.08 0.14 0.30 0.38 0.60 1.08 1.10 1.14 1.02 0.99 1.10 1.33 1.35 1.28 1.30 1.49 1.77 1.86 2.11 2.34 2.56 2.73 2.73 2.53 2.40 2.32 2.31 2.19 2.15 2.16 2.10 2.01 1.85 1.65 1.43
0.04 0.04 0.04 0.03 0.03 0.04 0.05 0.06 0.12 0.18 0.30 0.63 0.49 0.51 0.93 1.07 0.96 0.86 0.91 0.96 1.10 1.09 1.09 1.18 1.30 1.49 1.57 1.67 1.75 1.83 2.02 2.18 2.19 2.12 2.10 2.05 1.90 1.80 1.70 1.51 1.41 1.31 1.20 1.02
0.09 0.10 0.08 0.05 0.05 0.06 0.06 0.09 0.39 0.74 0.97 1.02 0.55 0.59 1.03 0.85 0.65 0.66 0.82 0.84 0.79 0.79 0.81 0.97 1.05 1.11 1.17 1.21 1.25 1.33 1.54 1.78 1.76 1.66 1.67 1.70 1.59 1.48 1.38 1.27 1.13 1.04 0.93 0.78
0.16 0.21 0.12 0.07 0.07 0.07 0.08 0.09 0.34 0.61 0.74 0.81 0.66 1.00 1.43 0.92 0.67 0.72 0.73 0.72 0.67 0.64 0.59 0.70 0.86 0.98 0.97 0.94 0.99 1.04 1.24 1.39 1.36 1.28 1.34 1.38 1.32 1.27 1.16 1.12 0.95 0.84 0.78 0.77
0.11 0.11 0.07 0.07 0.10 0.10 0.09 0.08 0.14 0.28 0.36 0.58 0.80 1.09 1.13 0.68 0.60 0.69 0.70 0.66 0.68 0.66 0.56 0.56 0.62 0.75 0.77 0.74 0.77 0.83 1.03 1.17 1.18 1.15 1.19 1.21 1.15 1.08 0.98 0.87 0.78 0.69 0.70 0.71
0.04 0.06 0.08 0.07 0.08 0.10 0.10 0.11 0.16 0.22 0.34 0.55 0.75 1.03 1.16 0.78 0.62 0.47 0.42 0.45 0.39 0.38 0.36 0.33 0.35 0.40 0.49 0.59 0.68 0.77 0.84 0.90 0.93 0.93 0.96 0.99 0.98 0.91 0.83 0.73 0.63 0.59 0.58 0.62
0.04 0.04 0.07 0.08 0.11 0.13 0.13 0.11 0.13 0.17 0.20 0.37 0.72 0.91 0.68 0.54 0.48 0.44 0.39 0.42 0.35 0.27 0.25 0.27 0.29 0.35 0.42 0.48 0.59 0.70 0.74 0.79 0.83 0.81 0.82 0.85 0.84 0.85 0.78 0.66 0.56 0.53 0.55 0.57
0.04 0.04 0.06 0.13 0.18 0.15 0.14 0.11 0.13 0.17 0.16 0.22 0.37 0.53 0.37 0.36 0.40 0.38 0.38 0.41 0.39 0.37 0.33 0.30 0.30 0.37 0.44 0.51 0.55 0.58 0.61 0.66 0.77 0.89 1.01 1.05 0.97 0.89 0.79 0.66 0.57 0.53 0.53 0.54
0.05 0.05 0.10 0.28 0.39 0.26 0.16 0.12 0.12 0.14 0.11 0.17 0.31 0.49 0.32 0.24 0.31 0.43 0.60 0.73 0.57 0.43 0.38 0.32 0.31 0.34 0.38 0.47 0.53 0.51 0.53 0.58 0.69 0.89 1.17 1.28 1.18 1.04 0.87 0.67 0.52 0.46 0.46 0.48
0.07 0.06 0.09 0.29 0.42 0.36 0.26 0.17 0.13 0.11 0.13 0.16 0.20 0.40 0.37 0.28 0.28 0.35 0.44 0.42 0.52 0.49 0.39 0.38 0.33 0.39 0.42 0.44 0.51 0.54 0.56 0.57 0.65 0.79 0.97 1.06 0.95 0.84 0.74 0.57 0.43 0.36 0.37 0.41
0.11 0.07 0.06 0.10 0.20 0.23 0.23 0.22 0.18 0.14 0.12 0.21 0.22 0.29 0.34 0.29 0.33 0.39 0.52 0.54 0.56 0.44 0.31 0.30 0.28 0.34 0.41 0.41 0.47 0.46 0.42 0.37 0.44 0.57 0.63 0.71 0.65 0.54 0.50 0.46 0.41 0.39 0.39 0.40
0.17 0.17 0.13 0.12 0.16 0.21 0.26 0.24 0.18 0.13 0.11 0.14 0.19 0.25 0.27 0.28 0.37 0.39 0.40 0.37 0.37 0.32 0.23 0.21 0.26 0.30 0.29 0.28 0.29 0.25 0.25 0.29 0.35 0.42 0.49 0.58 0.65 0.56 0.46 0.42 0.40 0.38 0.40 0.45
0.22 0.25 0.23 0.19 0.19 0.21 0.30 0.30 0.22 0.14 0.13 0.18 0.24 0.29 0.27 0.24 0.28 0.32 0.33 0.33 0.35 0.33 0.21 0.17 0.22 0.26 0.21 0.20 0.20 0.21 0.24 0.32 0.40 0.49 0.57 0.65 0.69 0.66 0.58 0.48 0.48 0.47 0.50 0.54
0.37 0.37 0.30 0.25 0.32 0.42 0.30 0.25 0.25 0.25 0.23 0.24 0.31 0.28 0.30 0.32 0.37 0.39 0.41 0.37 0.31 0.27 0.21 0.16 0.17 0.19 0.21 0.20 0.22 0.26 0.32 0.42 0.49 0.57 0.67 0.75 0.79 0.75 0.72 0.70 0.71 0.70 0.70 0.70
0.30 0.45 0.42 0.39 0.45 0.41 0.36 0.25 0.28 0.34 0.46 0.44 0.49 0.45 0.40 0.41 0.41 0.40 0.36 0.32 0.31 0.24 0.22 0.20 0.18 0.20 0.23 0.24 0.27 0.37 0.47 0.55 0.65 0.72 0.79 0.85 0.93 0.94 0.95 0.97 0.95 0.96 0.94 0.84
0.30 0.43 0.54 0.49 0.58 0.56 0.49 0.35 0.33 0.44 0.80 0.64 0.57 0.55 0.48 0.48 0.50 0.48 0.43 0.39 0.35 0.28 0.25 0.24 0.22 0.25 0.30 0.36 0.41 0.53 0.62 0.69 0.78 0.86 1.00 1.12 1.23 1.24 1.23 1.27 1.25 1.19 1.14 1.04
0.53 0.61 0.64 0.62 0.63 0.64 0.53 0.46 0.45 0.78 1.05 0.74 0.58 0.55 0.58 0.65 0.61 0.55 0.45 0.44 0.39 0.31 0.30 0.27 0.26 0.32 0.41 0.49 0.60 0.74 0.87 0.97 0.93 0.98 1.13 1.31 1.41 1.47 1.49 1.54 1.54 1.47 1.42 1.39
0.67 0.75 0.74 0.73 0.83 0.89 0.65 0.61 0.85 0.99 0.83 0.82 0.76 0.70 0.67 0.64 0.55 0.46 0.42 0.41 0.38 0.34 0.36 0.35 0.35 0.42 0.51 0.63 0.73 0.85 0.92 0.93 0.96 1.03 1.16 1.28 1.38 1.40 1.47 1.62 1.65 1.65 1.63 1.56
0.66 0.77 0.82 0.87 0.94 0.83 0.68 0.74 0.83 0.87 0.89 0.85 0.80 0.73 0.64 0.62 0.54 0.43 0.35 0.34 0.35 0.33 0.35 0.36 0.40 0.53 0.65 0.79 0.88 0.96 0.93 1.00 1.02 1.08 1.22 1.36 1.43 1.47 1.53 1.56 1.55 1.58 1.61 1.58
0.70 0.66 0.79 0.95 0.98 0.91 0.80 0.68 0.62 0.66 0.70 0.70 0.67 0.68 0.67 0.65 0.58 0.48 0.37 0.31 0.31 0.31 0.29 0.31 0.36 0.47 0.58 0.69 0.78 0.90 0.99 1.07 1.12 1.18 1.25 1.36 1.47 1.49 1.49 1.58 1.65 1.69 1.76 1.81
0.79 0.72 0.85 1.04 0.97 0.81 0.88 0.87 0.77 0.77 0.81 0.78 0.68 0.66 0.67 0.63 0.58 0.47 0.41 0.36 0.32 0.30 0.29 0.31 0.37 0.44 0.51 0.58 0.66 0.74 0.83 0.97 1.07 1.14 1.18 1.24 1.31 1.40 1.48 1.54 1.60 1.57 1.61 1.58
0.76 0.79 0.95 1.10 1.01 0.95 0.96 0.88 0.78 0.80 0.77 0.80 0.82 0.81 0.64 0.53 0.55 0.51 0.44 0.38 0.36 0.35 0.35 0.38 0.40 0.42 0.47 0.54 0.66 0.74 0.83 0.98 1.13 1.23 1.25 1.19 1.16 1.23 1.29 1.36 1.35 1.28 1.21 1.18

GEFSCGP_prec_meanprecacc_156.txt.gz
Total_Precipitation_Accumulation
0.00 0.00 0.01 0.01 0.01 0.01 0.03 0.06 0.09 0.12 0.10 0.12 0.23 0.49 0.68 0.79 1.01 1.05 1.10 1.25 1.35 1.46 1.77 2.14 2.44 2.99 3.57 3.88 4.26 4.42 4.39 4.23 3.93 3.52 3.15 2.86 2.63 2.48 2.24 2.09 1.97 1.88 1.81 1.88
0.01 0.03 0.02 0.01 0.01 0.02 0.04 0.07 0.09 0.14 0.13 0.17 0.32 0.54 0.79 0.80 0.89 0.94 0.87 0.95 1.13 1.46 1.70 2.18 2.41 2.62 3.10 3.59 4.01 4.25 4.38 4.24 3.82 3.35 3.04 2.85 2.78 2.46 2.16 2.11 2.07 1.93 1.97 1.94
0.01 0.02 0.02 0.01 0.02 0.04 0.06 0.07 0.09 0.10 0.12 0.23 0.34 0.72 0.97 0.86 0.82 0.87 0.87 0.94 1.10 1.56 2.00 2.21 2.33 2.46 2.69 3.12 3.40 3.46 3.58 3.53 3.28 3.17 3.08 2.93 2.86 2.51 2.34 2.34 2.30 2.15 2.14 2.08
0.01 0.01 0.02 0.03 0.04 0.04 0.08 0.06 0.05 0.06 0.14 0.33 0.36 0.82 1.24 1.07 0.91 0.95 1.02 0.99 1.28 1.61 1.62 1.70 1.95 2.23 2.43 2.67 2.97 3.15 3.19 3.10 2.91 2.87 2.79 2.63 2.40 2.29 2.39 2.58 2.49 2.23 2.03 1.86
0.03 0.03 0.03 0.04 0.04 0.04 0.06 0.05 0.06 0.09 0.14 0.30 0.38 0.60 1.08 1.11 1.15 1.03 1.01 1.12 1.35 1.37 1.32 1.34 1.54 1.85 1.96 2.23 2.47 2.71 2.91 2.95 2.79 2.69 2.59 2.55 2.39 2.32 2.31 2.23 2.11 1.92 1.71 1.48
0.04 0.04 0.04 0.03 0.03 0.04 0.05 0.06 0.12 0.18 0.30 0.63 0.49 0.51 0.93 1.07 0.97 0.86 0.92 0.97 1.12 1.11 1.14 1.25 1.39 1.63 1.72 1.81 1.88 2.01 2.22 2.40 2.43 2.37 2.33 2.28 2.14 2.04 1.90 1.66 1.51 1.39 1.27 1.08
0.09 0.10 0.08 0.05 0.05 0.06 0.06 0.09 0.39 0.74 0.97 1.02 0.55 0.59 1.03 0.85 0.65 0.66 0.82 0.85 0.81 0.81 0.85 1.06 1.17 1.23 1.33 1.40 1.43 1.54 1.76 2.02 2.04 1.94 1.92 1.92 1.80 1.70 1.56 1.42 1.25 1.12 1.00 0.83
0.16 0.21 0.12 0.07 0.07 0.07 0.08 0.09 0.34 0.61 0.74 0.81 0.66 1.00 1.43 0.92 0.68 0.72 0.74 0.73 0.70 0.67 0.63 0.75 0.94 1.09 1.11 1.12 1.19 1.31 1.54 1.69 1.68 1.56 1.59 1.64 1.54 1.49 1.37 1.31 1.09 0.93 0.85 0.81
0.11 0.11 0.07 0.07 0.10 0.10 0.09 0.08 0.14 0.28 0.36 0.58 0.80 1.09 1.13 0.68 0.60 0.70 0.71 0.68 0.70 0.69 0.59 0.59 0.67 0.81 0.87 0.88 0.94 1.03 1.28 1.45 1.47 1.41 1.44 1.47 1.43 1.32 1.17 1.07 0.95 0.81 0.80 0.79
0.04 0.06 0.08 0.07 0.08 0.10 0.10 0.11 0.16 0.22 0.34 0.55 0.75 1.03 1.17 0.79 0.63 0.47 0.43 0.46 0.41 0.40 0.38 0.36 0.39 0.46 0.55 0.66 0.79 0.89 0.99 1.11 1.17 1.15 1.15 1.18 1.23 1.14 1.03 0.96 0.83 0.71 0.67 0.72
0.04 0.04 0.07 0.08 0.11 0.13 0.13 0.11 0.13 0.17 0.20 0.37 0.72 0.91 0.69 0.55 0.49 0.45 0.40 0.44 0.37 0.30 0.28 0.30 0.34 0.41 0.49 0.54 0.66 0.77 0.83 0.92 1.00 0.99 1.00 1.01 1.00 1.02 0.97 0.87 0.74 0.68 0.67 0.66
0.04 0.04 0.06 0.13 0.18 0.16 0.14 0.11 0.13 0.17 0.16 0.22 0.37 0.53 0.38 0.37 0.40 0.38 0.38 0.42 0.41 0.40 0.36 0.33 0.34 0.44 0.50 0.55 0.60 0.63 0.67 0.77 0.90 1.02 1.16 1.19 1.11 1.04 0.94 0.82 0.72 0.68 0.65 0.63
0.05 0.05 0.10 0.28 0.40 0.26 0.16 0.12 0.12 0.14 0.11 0.17 0.32 0.50 0.32 0.24 0.31 0.43 0.61 0.74 0.58 0.45 0.39 0.35 0.36 0.40 0.43 0.51 0.57 0.55 0.58 0.66 0.78 0.99 1.29 1.40 1.30 1.16 0.99 0.80 0.65 0.59 0.59 0.60
0.07 0.06 0.09 0.29 0.42 0.36 0.26 0.17 0.13 0.11 0.13 0.16 0.20 0.40 0.37 0.28 0.29 0.36 0.45 0.43 0.54 0.51 0.41 0.42 0.41 0.46 0.48 0.49 0.56 0.57 0.60 0.62 0.72 0.87 1.07 1.16 1.06 0.95 0.85 0.70 0.54 0.48 0.49 0.54
0.11 0.08 0.06 0.11 0.21 0.23 0.23 0.22 0.18 0.14 0.12 0.21 0.23 0.29 0.34 0.29 0.35 0.41 0.53 0.55 0.58 0.47 0.36 0.38 0.35 0.40 0.47 0.47 0.54 0.51 0.46 0.42 0.49 0.64 0.71 0.79 0.75 0.66 0.62 0.59 0.53 0.50 0.53 0.53
0.17 0.17 0.13 0.13 0.17 0.22 0.26 0.24 0.18 0.13 0.11 0.14 0.19 0.25 0.28 0.29 0.38 0.40 0.41 0.38 0.38 0.34 0.26 0.25 0.30 0.34 0.35 0.34 0.35 0.30 0.29 0.33 0.40 0.48 0.54 0.64 0.72 0.67 0.59 0.56 0.54 0.51 0.54 0.57
0.22 0.25 0.23 0.19 0.19 0.21 0.31 0.31 0.23 0.14 0.13 0.18 0.24 0.30 0.28 0.25 0.29 0.34 0.35 0.34 0.37 0.35 0.23 0.19 0.25 0.29 0.26 0.25 0.25 0.27 0.29 0.36 0.45 0.53 0.61 0.69 0.76 0.74 0.70 0.63 0.64 0.61 0.63 0.65
0.37 0.37 0.30 0.25 0.33 0.43 0.32 0.27 0.26 0.26 0.24 0.24 0.32 0.29 0.31 0.33 0.38 0.40 0.42 0.38 0.32 0.28 0.22 0.18 0.19 0.22 0.25 0.27 0.28 0.31 0.37 0.46 0.53 0.61 0.70 0.80 0.85 0.82 0.81 0.83 0.86 0.86 0.85 0.82
0.31 0.46 0.43 0.40 0.45 0.42 0.37 0.27 0.29 0.35 0.47 0.45 0.50 0.46 0.41 0.42 0.42 0.42 0.38 0.33 0.32 0.25 0.24 0.23 0.21 0.26 0.32 0.35 0.35 0.44 0.52 0.61 0.70 0.76 0.83 0.91 0.99 1.01 1.01 1.04 1.04 1.07 1.08 0.97
0.31 0.44 0.55 0.50 0.58 0.57 0.50 0.38 0.35 0.45 0.82 0.65 0.58 0.56 0.50 0.49 0.52 0.50 0.45 0.42 0.38 0.31 0.28 0.29 0.28 0.35 0.42 0.47 0.52 0.61 0.68 0.74 0.84 0.91 1.05 1.20 1.31 1.33 1.31 1.36 1.34 1.28 1.22 1.12
0.54 0.62 0.65 0.63 0.63 0.64 0.54 0.49 0.49 0.80 1.06 0.76 0.61 0.57 0.59 0.67 0.64 0.58 0.48 0.47 0.42 0.34 0.35 0.33 0.33 0.39 0.51 0.59 0.70 0.82 0.95 1.03 0.98 1.04 1.19 1.39 1.52 1.59 1.63 1.71 1.68 1.61 1.56 1.53
0.70 0.77 0.75 0.74 0.83 0.89 0.66 0.63 0.88 1.02 0.84 0.84 0.80 0.73 0.70 0.67 0.59 0.50 0.46 0.44 0.41 0.38 0.40 0.40 0.39 0.48 0.59 0.73 0.83 0.94 1.02 1.00 1.01 1.08 1.21 1.36 1.50 1.54 1.63 1.81 1.85 1.84 1.82 1.75
0.68 0.79 0.84 0.89 0.95 0.84 0.69 0.76 0.85 0.89 0.90 0.87 0.85 0.78 0.70 0.67 0.58 0.47 0.41 0.39 0.39 0.37 0.39 0.40 0.44 0.58 0.72 0.89 1.00 1.08 1.02 1.06 1.09 1.13 1.27 1.42 1.51 1.57 1.67 1.71 1.71 1.72 1.76 1.74
0.73 0.69 0.83 0.98 1.01 0.94 0.82 0.71 0.64 0.69 0.73 0.73 0.70 0.71 0.72 0.71 0.64 0.54 0.44 0.36 0.36 0.36 0.34 0.37 0.42 0.52 0.62 0.74 0.86 1.01 1.08 1.14 1.19 1.26 1.32 1.41 1.52 1.55 1.57 1.68 1.76 1.82 1.90 1.95
0.83 0.76 0.89 1.08 1.00 0.85 0.92 0.90 0.80 0.81 0.85 0.81 0.72 0.68 0.70 0.68 0.64 0.55 0.48 0.42 0.37 0.34 0.33 0.36 0.43 0.50 0.56 0.63 0.71 0.80 0.89 1.02 1.13 1.20 1.26 1.31 1.37 1.45 1.54 1.61 1.67 1.66 1.71 1.69
0.78 0.82 0.98 1.14 1.05 0.99 1.00 0.92 0.82 0.84 0.80 0.83 0.85 0.83 0.66 0.56 0.59 0.55 0.49 0.41 0.39 0.38 0.38 0.41 0.43 0.47 0.52 0.58 0.70 0.77 0.86 1.01 1.16 1.25 1.28 1.24 1.23 1.30 1.36 1.43 1.43 1.37 1.28 1.25

GEFSCGP_prec_meanprecacc_162.txt.gz
Total_Precipitation_Accumulation
0.00 0.00 0.01 0.01 0.01 0.01 0.03 0.06 0.09 0.12 0.10 0.12 0.23 0.49 0.68 0.79 1.01 1.05 1.10 1.25 1.36 1.48 1.79 2.17 2.46 3.02 3.60 3.91 4.30 4.46 4.43 4.27 4.00 3.56 3.19 2.90 2.66 2.50 2.26 2.11 2.01 1.92 1.86 1.94
0.01 0.03 0.02 0.01 0.01 0.02 0.04 0.07 0.09 0.14 0.13 0.17 0.32 0.54 0.79 0.80 0.89 0.94 0.87 0.95 1.13 1.47 1.71 2.19 2.43 2.64 3.12 3.61 4.04 4.31 4.45 4.28 3.88 3.41 3.09 2.89 2.82 2.49 2.19 2.14 2.10 1.96 2.00 1.99
0.01 0.02 0.02 0.01 0.02 0.04 0.06 0.07 0.09 0.10 0.12 0.23 0.34 0.72 0.97 0.86 0.82 0.87 0.87 0.94 1.10 1.56 2.01 2.22 2.34 2.47 2.72 3.14 3.43 3.52 3.65 3.59 3.37 3.30 3.17 2.99 2.92 2.57 2.39 2.38 2.33 2.18 2.17 2.12
0.01 0.01 0.02 0.03 0.04 0.04 0.08 0.06 0.05 0.06 0.14 0.33 0.37 0.82 1.24 1.07 0.91 0.95 1.02 0.99 1.28 1.61 1.62 1.70 1.95 2.24 2.46 2.70 3.01 3.23 3.25 3.17 3.02 3.03 2.92 2.72 2.47 2.34 2.43 2.62 2.53 2.27 2.06 1.90
0.03 0.03 0.03 0.04 0.04 0.04 0.06 0.05 0.06 0.09 0.14 0.30 0.38 0.60 1.08 1.11 1.15 1.03 1.01 1.12 1.35 1.37 1.32 1.35 1.55 1.87 1.99 2.25 2.51 2.79 3.02 3.08 2.95 2.89 2.75 2.67 2.49 2.39 2.37 2.30 2.19 1.98 1.76 1.53
0.04 0.04 0.04 0.03 0.03 0.04 0.05 0.06 0.12 0.18 0.30 0.63 0.49 0.51 0.93 1.07 0.97 0.86 0.92 0.97 1.12 1.11 1.14 1.26 1.40 1.65 1.74 1.84 1.94 2.07 2.32 2.55 2.62 2.58 2.49 2.40 2.26 2.15 2.01 1.79 1.62 1.48 1.36 1.15
0.09 0.10 0.08 0.05 0.05 0.06 0.06 0.09 0.39 0.74 0.97 1.02 0.55 0.59 1.03 0.85 0.65 0.66 0.82 0.85 0.81 0.81 0.86 1.06 1.17 1.25 1.35 1.43 1.48 1.59 1.82 2.10 2.17 2.09 2.06 2.04 1.92 1.83 1.70 1.57 1.41 1.27 1.12 0.93
0.16 0.21 0.12 0.07 0.07 0.07 0.08 0.09 0.34 0.61 0.74 0.81 0.66 1.00 1.43 0.92 0.68 0.72 0.74 0.73 0.70 0.68 0.64 0.75 0.95 1.10 1.12 1.14 1.22 1.34 1.58 1.75 1.78 1.67 1.71 1.76 1.68 1.64 1.52 1.48 1.26 1.08 0.97 0.91
0.11 0.11 0.07 0.07 0.10 0.10 0.09 0.08 0.14 0.28 0.36 0.58 0.80 1.09 1.14 0.68 0.60 0.70 0.71 0.68 0.70 0.69 0.59 0.59 0.67 0.82 0.88 0.91 0.97 1.05 1.31 1.50 1.57 1.50 1.54 1.57 1.57 1.48 1.32 1.22 1.10 0.94 0.92 0.91
0.04 0.06 0.08 0.07 0.08 0.10 0.10 0.11 0.16 0.22 0.34 0.55 0.75 1.03 1.17 0.79 0.63 0.47 0.43 0.46 0.41 0.40 0.38 0.36 0.40 0.46 0.56 0.69 0.83 0.92 1.01 1.17 1.26 1.25 1.26 1.28 1.37 1.31 1.19 1.13 1.01 0.86 0.78 0.80
0.04 0.04 0.07 0.08 0.11 0.13 0.13 0.11 0.13 0.17 0.20 0.37 0.72 0.92 0.69 0.55 0.49 0.45 0.40 0.44 0.37 0.30 0.28 0.30 0.34 0.42 0.50 0.57 0.69 0.81 0.87 0.97 1.05 1.06 1.10 1.10 1.10 1.14 1.10 1.00 0.88 0.82 0.79 0.77
0.04 0.04 0.06 0.13 0.18 0.16 0.14 0.11 0.13 0.17 0.16 0.22 0.37 0.54 0.38 0.37 0.40 0.38 0.38 0.42 0.42 0.41 0.37 0.34 0.35 0.45 0.50 0.57 0.62 0.66 0.71 0.80 0.94 1.07 1.23 1.28 1.20 1.15 1.06 0.92 0.83 0.79 0.77 0.76
0.05 0.05 0.10 0.28 0.40 0.26 0.16 0.12 0.12 0.14 0.11 0.17 0.32 0.50 0.32 0.24 0.31 0.43 0.61 0.75 0.59 0.45 0.40 0.36 0.38 0.41 0.44 0.52 0.59 0.58 0.61 0.70 0.83 1.04 1.36 1.49 1.42 1.27 1.09 0.90 0.76 0.72 0.71 0.73
0.08 0.06 0.10 0.29 0.42 0.36 0.26 0.17 0.13 0.11 0.13 0.16 0.21 0.40 0.37 0.28 0.29 0.36 0.45 0.44 0.54 0.51 0.41 0.42 0.41 0.47 0.49 0.50 0.57 0.59 0.62 0.66 0.78 0.93 1.14 1.24 1.16 1.05 0.94 0.78 0.64 0.60 0.62 0.67
0.11 0.08 0.06 0.11 0.21 0.23 0.23 0.22 0.18 0.14 0.12 0.21 0.23 0.29 0.34 0.29 0.35 0.41 0.53 0.55 0.58 0.47 0.36 0.41 0.41 0.44 0.50 0.49 0.56 0.53 0.48 0.46 0.54 0.70 0.78 0.87 0.84 0.75 0.70 0.68 0.64 0.61 0.66 0.68
0.17 0.17 0.13 0.13 0.17 0.22 0.26 0.25 0.18 0.13 0.11 0.14 0.19 0.25 0.28 0.29 0.38 0.40 0.41 0.38 0.39 0.34 0.26 0.28 0.39 0.45 0.41 0.37 0.38 0.33 0.32 0.37 0.45 0.54 0.61 0.73 0.82 0.77 0.68 0.66 0.67 0.65 0.70 0.74
0.22 0.26 0.24 0.20 0.19 0.21 0.31 0.31 0.23 0.14 0.13 0.18 0.25 0.30 0.28 0.25 0.29 0.34 0.35 0.34 0.37 0.35 0.23 0.20 0.26 0.34 0.32 0.29 0.26 0.29 0.32 0.39 0.47 0.56 0.65 0.75 0.83 0.83 0.78 0.72 0.75 0.75 0.82 0.87
0.38 0.38 0.31 0.26 0.34 0.44 0.32 0.27 0.26 0.26 0.24 0.24 0.32 0.29 0.31 0.33 0.38 0.40 0.42 0.38 0.32 0.28 0.23 0.18 0.19 0.23 0.26 0.29 0.29 0.33 0.39 0.49 0.56 0.64 0.74 0.84 0.90 0.89 0.88 0.90 0.95 1.00 1.03 1.03
0.32 0.46 0.43 0.41 0.47 0.43 0.38 0.27 0.29 0.35 0.47 0.45 0.50 0.46 0.41 0.42 0.43 0.42 0.38 0.35 0.34 0.27 0.25 0.24 0.22 0.27 0.33 0.36 0.36 0.45 0.54 0.64 0.73 0.79 0.86 0.94 1.03 1.07 1.09 1.12 1.13 1.17 1.21 1.15
0.32 0.45 0.56 0.51 0.59 0.57 0.50 0.38 0.35 0.46 0.83 0.66 0.59 0.56 0.50 0.50 0.53 0.50 0.46 0.44 0.39 0.32 0.30 0.30 0.30 0.37 0.44 0.51 0.55 0.64 0.70 0.77 0.87 0.93 1.07 1.23 1.36 1.38 1.36 1.43 1.42 1.36 1.30 1.23
0.56 0.63 0.67 0.64 0.64 0.65 0.54 0.50 0.50 0.83 1.07 0.77 0.61 0.57 0.60 0.68 0.65 0.59 0.49 0.48 0.43 0.36 0.36 0.34 0.34 0.41 0.55 0.65 0.74 0.85 0.97 1.06 1.01 1.07 1.22 1.44 1.59 1.66 1.70 1.77 1.75 1.68 1.63 1.61
0.72 0.79 0.77 0.76 0.85 0.90 0.66 0.64 0.90 1.04 0.85 0.85 0.80 0.74 0.71 0.68 0.60 0.51 0.47 0.46 0.42 0.39 0.43 0.42 0.41 0.51 0.67 0.79 0.86 0.97 1.04 1.03 1.05 1.12 1.26 1.40 1.55 1.60 1.68 1.86 1.91 1.90 1.88 1.82
0.70 0.81 0.86 0.90 0.96 0.85 0.70 0.77 0.87 0.90 0.91 0.88 0.85 0.79 0.71 0.68 0.59 0.48 0.43 0.41 0.40 0.39 0.42 0.43 0.48 0.65 0.81 0.95 1.04 1.11 1.04 1.09 1.13 1.20 1.33 1.47 1.55 1.62 1.70 1.75 1.75 1.77 1.83 1.82
0.75 0.70 0.85 1.00 1.03 0.94 0.83 0.73 0.66 0.70 0.75 0.75 0.72 0.73 0.73 0.73 0.67 0.56 0.45 0.37 0.38 0.38 0.35 0.38 0.44 0.55 0.67 0.79 0.90 1.04 1.10 1.17 1.23 1.30 1.36 1.45 1.57 1.59 1.62 1.74 1.83 1.89 1.97 2.04
0.85 0.77 0.91 1.11 1.02 0.86 0.93 0.93 0.83 0.83 0.87 0.84 0.73 0.70 0.72 0.70 0.67 0.57 0.49 0.43 0.38 0.37 0.35 0.38 0.45 0.52 0.59 0.66 0.74 0.83 0.91 1.05 1.15 1.23 1.29 1.34 1.41 1.50 1.58 1.65 1.72 1.72 1.78 1.77
0.79 0.84 1.01 1.18 1.08 1.02 1.03 0.95 0.85 0.87 0.84 0.87 0.88 0.85 0.68 0.58 0.61 0.57 0.51 0.43 0.41 0.40 0.40 0.43 0.45 0.48 0.53 0.60 0.73 0.80 0.89 1.04 1.19 1.29 1.32 1.28 1.28 1.34 1.41 1.46 1.45 1.40 1.33 1.30

GEFSCGP_prec_meanprecacc_168.txt.gz
Total_Precipitation_Accumulation
0.00 0.00 0.01 0.01 0.01 0.01 0.03 0.06 0.09 0.12 0.10 0.12 0.23 0.49 0.69 0.80 1.01 1.05 1.10 1.25 1.36 1.49 1.80 2.18 2.47 3.02 3.61 3.95 4.34 4.50 4.46 4.29 4.02 3.59 3.22 2.95 2.72 2.56 2.31 2.15 2.05 1.96 1.88 1.96
0.01 0.03 0.02 0.01 0.01 0.02 0.04 0.07 0.09 0.14 0.13 0.17 0.32 0.54 0.79 0.81 0.90 0.94 0.87 0.95 1.13 1.48 1.72 2.20 2.44 2.65 3.13 3.64 4.08 4.35 4.48 4.30 3.89 3.43 3.12 2.93 2.89 2.56 2.24 2.19 2.17 2.00 2.03 2.01
0.01 0.02 0.02 0.01 0.02 0.04 0.06 0.07 0.09 0.10 0.12 0.24 0.35 0.72 0.97 0.86 0.83 0.87 0.87 0.94 1.11 1.57 2.01 2.23 2.35 2.48 2.73 3.16 3.46 3.56 3.69 3.63 3.40 3.35 3.21 3.05 3.00 2.64 2.46 2.44 2.40 2.23 2.20 2.14
0.01 0.01 0.02 0.03 0.04 0.04 0.08 0.06 0.05 0.07 0.14 0.33 0.37 0.82 1.25 1.07 0.91 0.95 1.02 0.99 1.28 1.61 1.63 1.71 1.96 2.24 2.47 2.70 3.03 3.27 3.30 3.22 3.08 3.09 2.97 2.76 2.51 2.39 2.48 2.67 2.60 2.33 2.11 1.94
0.03 0.03 0.03 0.04 0.04 0.04 0.06 0.05 0.06 0.09 0.15 0.31 0.39 0.60 1.09 1.12 1.16 1.04 1.01 1.12 1.35 1.37 1.32 1.35 1.55 1.87 1.99 2.27 2.54 2.83 3.08 3.14 3.02 2.98 2.82 2.74 2.56 2.48 2.47 2.40 2.29 2.08 1.85 1.60
0.04 0.04 0.04 0.03 0.03 0.04 0.05 0.06 0.12 0.18 0.31 0.65 0.50 0.51 0.93 1.09 0.99 0.88 0.94 0.98 1.12 1.11 1.15 1.27 1.40 1.65 1.75 1.86 1.96 2.13 2.39 2.62 2.69 2.67 2.58 2.48 2.34 2.25 2.15 1.94 1.75 1.59 1.45 1.25
0.09 0.10 0.08 0.05 0.05 0.06 0.06 0.09 0.39 0.74 0.97 1.02 0.55 0.59 1.04 0.89 0.71 0.72 0.85 0.86 0.81 0.81 0.87 1.08 1.18 1.26 1.38 1.47 1.50 1.63 1.86 2.15 2.22 2.16 2.14 2.12 2.02 1.95 1.82 1.71 1.56 1.38 1.21 1.00
0.16 0.21 0.12 0.07 0.07 0.07 0.08 0.09 0.34 0.62 0.74 0.81 0.66 1.00 1.44 0.95 0.73 0.77 0.78 0.74 0.70 0.68 0.64 0.76 0.96 1.11 1.15 1.18 1.25 1.39 1.63 1.79 1.83 1.73 1.79 1.84 1.78 1.75 1.62 1.62 1.42 1.22 1.08 0.99
0.11 0.11 0.07 0.07 0.10 0.10 0.09 0.08 0.14 0.28 0.36 0.59 0.82 1.10 1.14 0.69 0.61 0.70 0.71 0.68 0.70 0.69 0.62 0.60 0.68 0.83 0.90 0.93 1.01 1.11 1.39 1.59 1.64 1.58 1.62 1.66 1.67 1.58 1.43 1.34 1.23 1.07 1.05 1.01
0.04 0.06 0.08 0.07 0.08 0.10 0.10 0.11 0.16 0.22 0.35 0.57 0.77 1.06 1.18 0.80 0.64 0.48 0.43 0.46 0.41 0.40 0.39 0.37 0.40 0.47 0.58 0.72 0.87 0.98 1.07 1.24 1.35 1.34 1.34 1.36 1.47 1.41 1.30 1.25 1.13 0.96 0.90 0.91
0.04 0.04 0.07 0.08 0.11 0.13 0.13 0.11 0.13 0.17 0.20 0.38 0.76 0.97 0.72 0.57 0.51 0.46 0.41 0.44 0.37 0.30 0.29 0.30 0.35 0.42 0.52 0.59 0.73 0.88 0.93 1.03 1.12 1.14 1.18 1.20 1.19 1.23 1.21 1.11 0.99 0.94 0.92 0.89
0.04 0.04 0.06 0.13 0.18 0.16 0.14 0.11 0.13 0.17 0.17 0.23 0.42 0.61 0.44 0.42 0.44 0.39 0.39 0.42 0.42 0.41 0.37 0.34 0.36 0.45 0.52 0.59 0.67 0.72 0.77 0.86 0.99 1.13 1.29 1.36 1.30 1.24 1.16 1.02 0.94 0.94 0.93 0.90
0.05 0.05 0.10 0.28 0.40 0.26 0.16 0.12 0.12 0.14 0.11 0.18 0.36 0.58 0.36 0.28 0.33 0.44 0.61 0.75 0.59 0.45 0.41 0.38 0.40 0.43 0.46 0.55 0.63 0.62 0.65 0.75 0.89 1.11 1.43 1.58 1.52 1.38 1.20 1.02 0.90 0.86 0.86 0.87
0.08 0.06 0.10 0.29 0.42 0.36 0.26 0.17 0.13 0.11 0.13 0.16 0.23 0.47 0.41 0.35 0.33 0.38 0.46 0.44 0.54 0.51 0.42 0.46 0.44 0.51 0.52 0.53 0.61 0.63 0.67 0.71 0.84 1.01 1.24 1.34 1.25 1.16 1.05 0.90 0.78 0.74 0.75 0.81
0.11 0.08 0.07 0.11 0.21 0.23 0.23 0.22 0.18 0.14 0.12 0.21 0.24 0.33 0.38 0.38 0.46 0.51 0.55 0.55 0.58 0.47 0.37 0.42 0.42 0.46 0.52 0.51 0.58 0.56 0.53 0.51 0.60 0.76 0.86 0.96 0.93 0.87 0.81 0.78 0.74 0.72 0.77 0.79
0.17 0.17 0.14 0.15 0.18 0.23 0.27 0.25 0.18 0.13 0.11 0.15 0.22 0.32 0.34 0.39 0.51 0.50 0.43 0.39 0.39 0.34 0.27 0.28 0.40 0.46 0.44 0.41 0.41 0.36 0.36 0.42 0.51 0.62 0.71 0.83 0.93 0.91 0.82 0.78 0.80 0.77 0.81 0.85
0.22 0.26 0.24 0.23 0.23 0.23 0.33 0.32 0.23 0.14 0.13 0.19 0.30 0.42 0.43 0.30 0.33 0.37 0.36 0.35 0.38 0.36 0.23 0.21 0.27 0.35 0.37 0.38 0.34 0.35 0.38 0.44 0.53 0.64 0.73 0.84 0.94 0.95 0.91 0.85 0.88 0.89 0.95 1.01
0.38 0.39 0.31 0.28 0.39 0.49 0.35 0.28 0.27 0.26 0.24 0.26 0.38 0.38 0.43 0.40 0.40 0.42 0.44 0.39 0.33 0.30 0.24 0.19 0.20 0.24 0.29 0.36 0.39 0.42 0.45 0.54 0.62 0.70 0.81 0.92 1.00 0.99 0.99 1.02 1.07 1.12 1.15 1.18
0.32 0.47 0.45 0.44 0.55 0.48 0.41 0.29 0.30 0.36 0.49 0.49 0.56 0.50 0.44 0.44 0.44 0.44 0.39 0.35 0.35 0.28 0.26 0.25 0.23 0.27 0.35 0.39 0.41 0.53 0.62 0.71 0.79 0.84 0.91 0.99 1.09 1.14 1.17 1.22 1.25 1.28 1.33 1.30
0.32 0.47 0.58 0.55 0.67 0.65 0.55 0.41 0.38 0.49 0.89 0.71 0.63 0.62 0.53 0.51 0.56 0.53 0.48 0.44 0.40 0.33 0.30 0.31 0.30 0.37 0.46 0.53 0.60 0.69 0.77 0.84 0.94 1.00 1.13 1.29 1.43 1.45 1.46 1.55 1.60 1.54 1.47 1.39
0.58 0.66 0.70 0.69 0.73 0.77 0.61 0.55 0.54 0.90 1.17 0.86 0.68 0.64 0.65 0.72 0.70 0.62 0.51 0.49 0.44 0.37 0.37 0.35 0.34 0.42 0.57 0.69 0.79 0.90 1.03 1.13 1.09 1.14 1.29 1.51 1.66 1.73 1.77 1.87 1.88 1.85 1.81 1.78
0.74 0.81 0.80 0.80 0.95 1.08 0.74 0.69 0.99 1.16 0.95 0.94 0.89 0.80 0.77 0.73 0.65 0.55 0.49 0.47 0.43 0.40 0.43 0.43 0.42 0.54 0.69 0.83 0.90 1.02 1.09 1.10 1.12 1.19 1.33 1.47 1.63 1.67 1.74 1.93 1.99 2.02 2.01 1.94
0.73 0.85 0.91 0.99 1.11 1.00 0.78 0.84 0.94 0.97 0.97 0.93 0.94 0.93 0.85 0.81 0.70 0.56 0.45 0.42 0.41 0.40 0.43 0.45 0.50 0.68 0.84 0.99 1.08 1.15 1.09 1.16 1.21 1.28 1.41 1.53 1.62 1.70 1.78 1.82 1.81 1.84 1.91 1.90
0.78 0.73 0.91 1.09 1.15 1.03 0.87 0.74 0.68 0.73 0.78 0.78 0.76 0.80 0.82 0.82 0.75 0.60 0.46 0.38 0.40 0.40 0.36 0.41 0.50 0.62 0.73 0.84 0.94 1.08 1.16 1.24 1.30 1.38 1.42 1.50 1.62 1.65 1.68 1.80 1.88 1.94 2.03 2.09
0.89 0.81 1.01 1.25 1.13 0.92 0.96 0.94 0.84 0.85 0.90 0.87 0.76 0.72 0.76 0.75 0.71 0.58 0.50 0.44 0.40 0.39 0.38 0.42 0.53 0.59 0.66 0.71 0.78 0.87 0.96 1.09 1.19 1.26 1.33 1.39 1.45 1.54 1.62 1.67 1.74 1.75 1.81 1.80
0.84 0.90 1.15 1.35 1.20 1.10 1.07 0.97 0.86 0.90 0.87 0.90 0.90 0.88 0.72 0.64 0.67 0.60 0.53 0.44 0.42 0.42 0.43 0.47 0.51 0.54 0.59 0.64 0.76 0.84 0.93 1.08 1.22 1.32 1.36 1.32 1.31 1.38 1.44 1.49 1.47 1.43 1.35 1.31

GEFSCGP_prec_meanprecacc_174.txt.gz
Total_Precipitation_Accumulation
0.00 0.00 0.01 0.01 0.01 0.01 0.03 0.06 0.09 0.12 0.10 0.12 0.23 0.49 0.69 0.82 1.08 1.08 1.12 1.28 1.42 1.55 1.84 2.21 2.49 3.07 3.67 4.01 4.40 4.53 4.48 4.32 4.05 3.62 3.26 3.00 2.75 2.59 2.35 2.18 2.08 1.97 1.89 1.98
0.01 0.03 0.02 0.01 0.01 0.02 0.04 0.07 0.09 0.14 0.13 0.17 0.33 0.54 0.80 0.82 0.92 0.99 0.91 0.97 1.15 1.52 1.76 2.24 2.48 2.69 3.18 3.69 4.13 4.40 4.51 4.34 3.94 3.48 3.19 3.01 2.93 2.59 2.28 2.22 2.20 2.02 2.05 2.05
0.01 0.02 0.02 0.01 0.02 0.04 0.06 0.07 0.09 0.10 0.12 0.24 0.35 0.73 0.98 0.87 0.84 0.89 0.90 0.97 1.14 1.60 2.03 2.26 2.39 2.52 2.77 3.20 3.49 3.59 3.72 3.66 3.44 3.40 3.29 3.12 3.06 2.68 2.50 2.48 2.44 2.26 2.24 2.18
0.01 0.01 0.02 0.03 0.04 0.04 0.08 0.06 0.05 0.07 0.14 0.34 0.38 0.83 1.25 1.08 0.93 1.00 1.08 1.05 1.32 1.65 1.67 1.76 2.03 2.31 2.52 2.75 3.07 3.30 3.33 3.25 3.12 3.14 3.05 2.85 2.61 2.47 2.52 2.71 2.65 2.39 2.17 1.98
0.03 0.03 0.03 0.04 0.04 0.04 0.06 0.05 0.06 0.09 0.16 0.32 0.40 0.61 1.10 1.13 1.17 1.08 1.10 1.23 1.44 1.42 1.40 1.47 1.66 1.95 2.06 2.35 2.61 2.88 3.12 3.18 3.07 3.04 2.91 2.85 2.67 2.59 2.56 2.48 2.37 2.15 1.92 1.66
0.04 0.04 0.04 0.03 0.03 0.04 0.05 0.06 0.12 0.18 0.31 0.65 0.52 0.52 0.94 1.11 1.00 0.92 0.98 1.03 1.22 1.22 1.23 1.39 1.53 1.73 1.82 1.95 2.08 2.21 2.44 2.67 2.75 2.75 2.68 2.60 2.46 2.37 2.26 2.07 1.87 1.67 1.53 1.31
0.09 0.10 0.08 0.05 0.05 0.06 0.06 0.09 0.39 0.74 0.98 1.03 0.56 0.60 1.04 0.90 0.72 0.73 0.88 0.90 0.85 0.90 0.95 1.15 1.25 1.34 1.45 1.53 1.58 1.69 1.91 2.20 2.28 2.23 2.22 2.22 2.15 2.07 1.94 1.85 1.69 1.48 1.29 1.06
0.16 0.21 0.12 0.07 0.07 0.07 0.08 0.09 0.34 0.62 0.75 0.82 0.67 1.01 1.45 0.97 0.74 0.78 0.81 0.78 0.73 0.73 0.71 0.84 1.02 1.20 1.26 1.27 1.33 1.44 1.69 1.86 1.90 1.81 1.87 1.93 1.89 1.88 1.76 1.78 1.58 1.34 1.19 1.10
0.11 0.11 0.07 0.07 0.10 0.10 0.09 0.08 0.14 0.28 0.37 0.59 0.83 1.12 1.17 0.72 0.63 0.72 0.73 0.71 0.74 0.73 0.69 0.72 0.77 0.91 0.97 0.99 1.06 1.16 1.46 1.66 1.71 1.67 1.70 1.74 1.76 1.69 1.54 1.46 1.36 1.18 1.16 1.13
0.04 0.06 0.08 0.07 0.08 0.10 0.10 0.11 0.16 0.22 0.35 0.57 0.79 1.09 1.24 0.86 0.70 0.52 0.46 0.49 0.45 0.46 0.49 0.52 0.50 0.55 0.67 0.81 0.96 1.07 1.17 1.35 1.49 1.48 1.47 1.46 1.57 1.51 1.39 1.36 1.23 1.04 0.97 0.99
0.04 0.04 0.07 0.08 0.11 0.13 0.13 0.11 0.13 0.17 0.20 0.38 0.79 1.02 0.82 0.68 0.57 0.52 0.47 0.50 0.42 0.35 0.35 0.40 0.45 0.50 0.63 0.74 0.85 0.97 1.02 1.14 1.26 1.29 1.32 1.31 1.28 1.32 1.31 1.21 1.07 1.02 1.00 0.96
0.04 0.04 0.06 0.13 0.18 0.16 0.14 0.11 0.13 0.17 0.17 0.24 0.43 0.64 0.51 0.57 0.57 0.50 0.48 0.55 0.56 0.50 0.43 0.43 0.50 0.54 0.64 0.73 0.78 0.81 0.85 0.95 1.09 1.23 1.40 1.46 1.39 1.34 1.25 1.10 1.02 1.02 1.01 0.99
0.05 0.05 0.10 0.28 0.40 0.26 0.16 0.12 0.12 0.14 0.11 0.19 0.39 0.62 0.41 0.36 0.45 0.59 0.81 0.99 0.79 0.60 0.50 0.52 0.55 0.50 0.54 0.64 0.72 0.68 0.70 0.82 0.97 1.19 1.51 1.65 1.60 1.47 1.30 1.12 0.99 0.96 0.97 1.00
0.08 0.06 0.10 0.30 0.42 0.36 0.26 0.17 0.13 0.11 0.13 0.17 0.25 0.50 0.45 0.41 0.45 0.59 0.74 0.71 0.71 0.64 0.55 0.60 0.56 0.59 0.61 0.59 0.66 0.67 0.71 0.76 0.90 1.08 1.29 1.39 1.29 1.20 1.13 1.00 0.90 0.87 0.89 0.95
0.12 0.08 0.07 0.12 0.21 0.24 0.24 0.22 0.18 0.14 0.12 0.21 0.25 0.36 0.43 0.43 0.54 0.67 0.80 0.78 0.76 0.61 0.48 0.49 0.46 0.51 0.56 0.56 0.63 0.60 0.55 0.54 0.65 0.82 0.92 1.01 0.98 0.91 0.88 0.86 0.84 0.83 0.91 0.92
0.17 0.17 0.14 0.15 0.19 0.24 0.27 0.25 0.18 0.13 0.11 0.16 0.24 0.37 0.47 0.53 0.61 0.65 0.60 0.52 0.49 0.41 0.31 0.31 0.42 0.48 0.46 0.44 0.46 0.39 0.40 0.47 0.57 0.68 0.77 0.90 0.99 0.97 0.90 0.87 0.88 0.87 0.94 0.97
0.22 0.26 0.25 0.24 0.23 0.24 0.34 0.33 0.24 0.15 0.14 0.20 0.32 0.47 0.61 0.51 0.50 0.55 0.50 0.48 0.48 0.42 0.27 0.23 0.29 0.37 0.39 0.40 0.36 0.37 0.42 0.50 0.60 0.71 0.80 0.91 1.03 1.08 1.03 0.94 0.98 0.99 1.04 1.10
0.38 0.39 0.31 0.29 0.40 0.50 0.36 0.30 0.29 0.28 0.26 0.27 0.39 0.41 0.51 0.51 0.56 0.64 0.59 0.54 0.42 0.35 0.28 0.22 0.22 0.26 0.32 0.38 0.42 0.47 0.54 0.63 0.70 0.78 0.88 1.03 1.12 1.11 1.10 1.12 1.16 1.19 1.23 1.26
0.32 0.48 0.45 0.45 0.57 0.50 0.44 0.32 0.35 0.40 0.53 0.53 0.61 0.55 0.50 0.50 0.56 0.61 0.51 0.43 0.40 0.32 0.29 0.27 0.25 0.30 0.37 0.42 0.44 0.58 0.71 0.83 0.91 0.93 0.98 1.09 1.21 1.24 1.27 1.32 1.33 1.37 1.42 1.37
0.33 0.48 0.60 0.57 0.70 0.70 0.60 0.47 0.46 0.57 0.97 0.80 0.72 0.70 0.60 0.57 0.65 0.65 0.57 0.51 0.44 0.36 0.34 0.34 0.33 0.40 0.48 0.56 0.62 0.72 0.82 0.91 1.04 1.10 1.20 1.36 1.51 1.53 1.54 1.63 1.69 1.64 1.57 1.48
0.60 0.69 0.72 0.71 0.76 0.81 0.71 0.66 0.67 1.04 1.29 0.98 0.82 0.78 0.75 0.81 0.80 0.74 0.64 0.59 0.51 0.43 0.42 0.40 0.39 0.46 0.60 0.71 0.81 0.93 1.07 1.16 1.13 1.20 1.35 1.57 1.71 1.79 1.84 1.94 1.97 1.94 1.91 1.88
0.77 0.85 0.84 0.84 1.00 1.14 0.81 0.77 1.13 1.36 1.15 1.16 1.12 1.04 0.91 0.84 0.78 0.72 0.64 0.60 0.53 0.49 0.51 0.50 0.49 0.60 0.74 0.87 0.93 1.04 1.11 1.13 1.17 1.25 1.39 1.52 1.66 1.71 1.78 1.99 2.06 2.10 2.11 2.05
0.78 0.89 0.96 1.05 1.17 1.09 0.87 0.93 1.12 1.24 1.38 1.30 1.21 1.20 1.02 0.94 0.82 0.70 0.61 0.56 0.51 0.48 0.50 0.52 0.56 0.74 0.91 1.02 1.11 1.18 1.13 1.21 1.27 1.34 1.47 1.59 1.68 1.76 1.85 1.89 1.88 1.91 1.97 1.97
0.86 0.78 0.97 1.17 1.23 1.15 0.99 0.84 0.81 0.96 1.07 1.03 0.99 1.01 0.97 0.93 0.86 0.74 0.61 0.51 0.48 0.46 0.41 0.45 0.55 0.66 0.78 0.87 0.97 1.11 1.20 1.30 1.37 1.43 1.48 1.56 1.68 1.71 1.74 1.86 1.93 1.98 2.07 2.14
1.02 0.89 1.10 1.36 1.24 1.07 1.13 1.06 0.95 1.01 1.08 0.99 0.89 0.84 0.84 0.82 0.79 0.66 0.58 0.51 0.45 0.44 0.42 0.47 0.57 0.64 0.70 0.75 0.83 0.92 1.02 1.15 1.25 1.32 1.38 1.43 1.48 1.56 1.64 1.70 1.77 1.77 1.83 1.81
1.05 1.04 1.30 1.53 1.34 1.23 1.23 1.09 0.98 1.04 1.00 1.00 1.00 0.96 0.77 0.69 0.72 0.67 0.59 0.51 0.48 0.49 0.50 0.53 0.57 0.59 0.63 0.68 0.80 0.90 0.99 1.14 1.28 1.37 1.39 1.35 1.34 1.39 1.45 1.50 1.48 1.44 1.36 1.32

GEFSCGP_prec_meanprecacc_180.txt.gz
Total_Precipitation_Accumulation
0.00 0.00 0.01 0.01 0.02 0.01 0.03 0.06 0.09 0.12 0.10 0.12 0.23 0.49 0.70 0.82 1.08 1.09 1.13 1.28 1.42 1.55 1.84 2.22 2.51 3.09 3.71 4.07 4.44 4.56 4.50 4.35 4.12 3.69 3.34 3.08 2.85 2.67 2.42 2.24 2.15 2.03 1.93 2.01
0.01 0.03 0.02 0.01 0.01 0.02 0.04 0.07 0.09 0.14 0.13 0.17 0.33 0.54 0.80 0.83 0.92 0.99 0.92 0.97 1.16 1.52 1.76 2.25 2.49 2.71 3.21 3.73 4.16 4.42 4.54 4.39 4.00 3.55 3.27 3.07 3.00 2.66 2.37 2.32 2.30 2.12 2.12 2.11
0.01 0.02 0.02 0.01 0.02 0.04 0.06 0.07 0.09 0.10 0.12 0.24 0.35 0.73 0.98 0.87 0.85 0.89 0.91 0.98 1.15 1.60 2.04 2.27 2.41 2.55 2.81 3.24 3.54 3.64 3.78 3.73 3.52 3.49 3.40 3.20 3.13 2.75 2.57 2.54 2.51 2.34 2.32 2.24
0.01 0.01 0.02 0.03 0.04 0.04 0.08 0.06 0.05 0.07 0.14 0.34 0.38 0.83 1.26 1.09 0.94 1.00 1.09 1.06 1.33 1.66 1.69 1.78 2.06 2.37 2.58 2.80 3.11 3.35 3.39 3.32 3.19 3.23 3.15 2.93 2.69 2.53 2.58 2.77 2.73 2.49 2.27 2.07
0.03 0.03 0.03 0.04 0.04 0.04 0.06 0.05 0.06 0.09 0.16 0.32 0.40 0.61 1.10 1.13 1.17 1.08 1.11 1.24 1.45 1.44 1.42 1.51 1.70 2.00 2.12 2.40 2.66 2.93 3.20 3.25 3.15 3.12 3.00 2.95 2.75 2.67 2.67 2.59 2.47 2.24 2.01 1.74
0.04 0.04 0.04 0.03 0.03 0.04 0.05 0.06 0.12 0.18 0.31 0.65 0.52 0.52 0.94 1.11 1.01 0.92 0.99 1.04 1.23 1.24 1.25 1.43 1.59 1.79 1.89 2.02 2.14 2.27 2.50 2.74 2.82 2.82 2.75 2.67 2.54 2.45 2.36 2.16 1.95 1.75 1.60 1.38
0.09 0.10 0.08 0.05 0.05 0.06 0.06 0.09 0.39 0.74 0.98 1.03 0.56 0.60 1.04 0.90 0.72 0.74 0.89 0.91 0.87 0.91 0.97 1.19 1.31 1.39 1.51 1.60 1.64 1.77 1.99 2.28 2.34 2.30 2.28 2.30 2.24 2.17 2.04 1.95 1.77 1.56 1.36 1.11
0.16 0.21 0.12 0.07 0.07 0.07 0.08 0.09 0.34 0.62 0.75 0.82 0.67 1.01 1.45 0.97 0.75 0.79 0.82 0.79 0.75 0.75 0.74 0.88 1.07 1.27 1.33 1.34 1.40 1.50 1.75 1.94 1.98 1.87 1.94 2.03 2.00 2.00 1.88 1.90 1.69 1.42 1.24 1.16
0.11 0.11 0.07 0.07 0.10 0.10 0.09 0.08 0.14 0.28 0.37 0.59 0.83 1.13 1.17 0.72 0.63 0.72 0.74 0.72 0.76 0.75 0.71 0.76 0.83 0.98 1.03 1.05 1.11 1.23 1.55 1.76 1.81 1.78 1.83 1.90 1.92 1.84 1.70 1.60 1.48 1.28 1.26 1.22
0.04 0.06 0.08 0.07 0.08 0.10 0.10 0.11 0.16 0.22 0.35 0.57 0.79 1.09 1.24 0.86 0.70 0.52 0.47 0.50 0.47 0.48 0.51 0.55 0.55 0.61 0.73 0.88 1.06 1.18 1.26 1.47 1.64 1.65 1.64 1.64 1.74 1.66 1.54 1.47 1.31 1.13 1.06 1.09
0.04 0.04 0.07 0.08 0.11 0.13 0.13 0.11 0.13 0.17 0.20 0.38 0.79 1.02 0.82 0.68 0.57 0.53 0.47 0.50 0.44 0.38 0.39 0.44 0.49 0.54 0.67 0.79 0.95 1.11 1.15 1.27 1.39 1.44 1.51 1.49 1.45 1.47 1.43 1.30 1.14 1.08 1.06 1.02
0.04 0.04 0.06 0.13 0.18 0.16 0.14 0.11 0.13 0.17 0.17 0.24 0.43 0.64 0.51 0.57 0.57 0.50 0.49 0.55 0.58 0.52 0.46 0.48 0.55 0.60 0.70 0.79 0.84 0.90 0.96 1.07 1.21 1.35 1.51 1.56 1.50 1.47 1.39 1.20 1.08 1.06 1.05 1.04
0.05 0.05 0.10 0.28 0.40 0.26 0.16 0.12 0.12 0.14 0.11 0.19 0.39 0.62 0.41 0.36 0.45 0.60 0.82 1.00 0.81 0.62 0.53 0.55 0.59 0.58 0.63 0.72 0.79 0.74 0.78 0.91 1.07 1.29 1.60 1.72 1.67 1.55 1.39 1.21 1.05 1.00 1.03 1.07
0.08 0.06 0.10 0.30 0.42 0.36 0.26 0.17 0.13 0.11 0.13 0.17 0.25 0.50 0.45 0.41 0.46 0.60 0.75 0.72 0.73 0.66 0.59 0.64 0.61 0.66 0.69 0.67 0.74 0.74 0.77 0.83 0.96 1.14 1.36 1.45 1.35 1.25 1.18 1.09 0.98 0.93 0.96 1.03
0.12 0.08 0.07 0.12 0.21 0.24 0.24 0.22 0.18 0.14 0.12 0.21 0.25 0.36 0.43 0.43 0.55 0.68 0.80 0.79 0.78 0.64 0.53 0.53 0.51 0.56 0.63 0.63 0.70 0.66 0.61 0.59 0.68 0.86 0.98 1.08 1.06 0.99 0.95 0.95 0.93 0.90 0.99 1.01
0.17 0.17 0.14 0.16 0.19 0.24 0.27 0.25 0.18 0.13 0.11 0.16 0.24 0.37 0.47 0.54 0.62 0.66 0.61 0.54 0.52 0.47 0.35 0.34 0.44 0.51 0.50 0.48 0.50 0.44 0.45 0.52 0.63 0.74 0.84 0.97 1.06 1.04 0.97 0.93 0.95 0.93 1.01 1.06
0.23 0.26 0.25 0.24 0.23 0.24 0.34 0.33 0.24 0.15 0.14 0.20 0.32 0.47 0.61 0.52 0.51 0.57 0.53 0.51 0.51 0.46 0.30 0.25 0.30 0.38 0.41 0.43 0.39 0.40 0.48 0.58 0.68 0.79 0.87 0.99 1.09 1.13 1.09 1.01 1.04 1.05 1.12 1.19
0.38 0.39 0.32 0.30 0.41 0.50 0.37 0.30 0.29 0.28 0.26 0.27 0.39 0.41 0.52 0.52 0.58 0.66 0.63 0.58 0.46 0.40 0.31 0.24 0.24 0.27 0.34 0.41 0.45 0.51 0.61 0.73 0.79 0.86 0.95 1.09 1.19 1.19 1.17 1.19 1.24 1.29 1.35 1.38
0.32 0.48 0.46 0.45 0.58 0.50 0.44 0.32 0.36 0.40 0.53 0.54 0.61 0.55 0.51 0.51 0.58 0.64 0.55 0.48 0.45 0.38 0.34 0.31 0.28 0.34 0.42 0.46 0.49 0.64 0.79 0.93 0.99 0.98 1.03 1.15 1.27 1.32 1.35 1.40 1.45 1.50 1.55 1.49
0.33 0.48 0.60 0.57 0.71 0.70 0.60 0.47 0.46 0.57 0.98 0.81 0.74 0.70 0.60 0.58 0.68 0.69 0.61 0.54 0.49 0.42 0.40 0.39 0.38 0.46 0.55 0.61 0.66 0.78 0.87 0.96 1.08 1.16 1.28 1.44 1.60 1.64 1.67 1.77 1.85 1.78 1.70 1.58
0.61 0.69 0.72 0.72 0.77 0.82 0.72 0.66 0.67 1.04 1.29 0.98 0.83 0.79 0.76 0.84 0.84 0.78 0.68 0.63 0.57 0.49 0.48 0.44 0.44 0.52 0.66 0.76 0.85 0.97 1.10 1.19 1.16 1.24 1.41 1.62 1.77 1.85 1.91 2.03 2.07 2.02 2.00 1.96
0.77 0.85 0.84 0.85 1.01 1.15 0.81 0.78 1.14 1.36 1.16 1.16 1.13 1.05 0.93 0.87 0.83 0.76 0.68 0.65 0.59 0.55 0.57 0.55 0.54 0.66 0.81 0.94 0.99 1.09 1.15 1.18 1.21 1.27 1.41 1.54 1.68 1.72 1.79 2.01 2.11 2.17 2.18 2.12
0.80 0.90 0.97 1.06 1.18 1.10 0.88 0.94 1.13 1.25 1.38 1.31 1.22 1.21 1.05 0.97 0.88 0.76 0.67 0.62 0.58 0.54 0.56 0.57 0.61 0.79 0.96 1.10 1.18 1.24 1.18 1.24 1.30 1.36 1.49 1.61 1.69 1.77 1.86 1.91 1.91 1.97 2.04 2.03
0.91 0.81 0.99 1.18 1.25 1.17 1.00 0.86 0.83 0.98 1.09 1.05 1.02 1.03 1.01 0.98 0.90 0.79 0.66 0.55 0.52 0.50 0.45 0.49 0.59 0.70 0.81 0.91 1.01 1.15 1.24 1.32 1.39 1.46 1.51 1.58 1.69 1.72 1.75 1.87 1.95 2.01 2.10 2.19
1.07 0.93 1.13 1.39 1.28 1.11 1.17 1.09 0.98 1.03 1.11 1.03 0.94 0.89 0.90 0.88 0.84 0.70 0.62 0.55 0.49 0.47 0.45 0.49 0.59 0.65 0.72 0.77 0.85 0.95 1.04 1.17 1.27 1.34 1.40 1.45 1.49 1.57 1.65 1.70 1.79 1.80 1.86 1.84
1.09 1.08 1.34 1.58 1.40 1.27 1.26 1.13 1.01 1.08 1.05 1.06 1.07 1.05 0.86 0.77 0.79 0.73 0.65 0.55 0.52 0.52 0.52 0.56 0.59 0.61 0.65 0.70 0.83 0.93 1.02 1.16 1.30 1.39 1.41 1.37 1.35 1.40 1.46 1.50 1.49 1.46 1.38 1.35

GEFSCGP_prec_meanprecacc_186.txt.gz
Total_Precipitation_Accumulation
0.00 0.00 0.01 0.01 0.02 0.02 0.03 0.06 0.09 0.12 0.10 0.12 0.23 0.49 0.70 0.82 1.08 1.09 1.13 1.28 1.42 1.55 1.84 2.22 2.51 3.09 3.71 4.08 4.45 4.58 4.54 4.38 4.15 3.72 3.37 3.11 2.88 2.71 2.46 2.28 2.19 2.06 1.97 2.05
0.01 0.03 0.02 0.01 0.02 0.02 0.04 0.07 0.09 0.14 0.13 0.17 0.33 0.54 0.80 0.83 0.92 0.99 0.92 0.97 1.16 1.52 1.76 2.25 2.50 2.71 3.22 3.74 4.18 4.45 4.58 4.42 4.04 3.59 3.31 3.12 3.06 2.71 2.41 2.37 2.35 2.16 2.17 2.16
0.01 0.02 0.02 0.01 0.02 0.04 0.06 0.07 0.09 0.10 0.12 0.24 0.35 0.73 0.98 0.87 0.85 0.89 0.91 0.98 1.15 1.61 2.04 2.28 2.42 2.56 2.82 3.26 3.57 3.67 3.81 3.76 3.56 3.54 3.48 3.32 3.22 2.81 2.63 2.60 2.58 2.40 2.37 2.30
0.01 0.01 0.02 0.03 0.04 0.04 0.08 0.06 0.06 0.07 0.14 0.34 0.38 0.83 1.26 1.09 0.94 1.00 1.09 1.06 1.33 1.66 1.69 1.79 2.07 2.37 2.60 2.83 3.14 3.37 3.42 3.34 3.22 3.26 3.22 3.04 2.79 2.61 2.66 2.86 2.83 2.56 2.33 2.12
0.03 0.03 0.03 0.04 0.04 0.04 0.06 0.05 0.06 0.09 0.16 0.32 0.40 0.61 1.10 1.13 1.17 1.08 1.11 1.24 1.45 1.44 1.43 1.52 1.71 2.02 2.16 2.44 2.68 2.96 3.22 3.27 3.18 3.17 3.06 3.02 2.84 2.77 2.78 2.69 2.57 2.33 2.08 1.80
0.04 0.04 0.04 0.03 0.03 0.04 0.05 0.06 0.12 0.18 0.31 0.65 0.52 0.52 0.94 1.11 1.01 0.92 0.99 1.04 1.23 1.24 1.26 1.43 1.61 1.84 1.94 2.06 2.18 2.30 2.52 2.77 2.87 2.87 2.79 2.75 2.63 2.56 2.46 2.26 2.06 1.85 1.69 1.45
0.09 0.10 0.08 0.05 0.05 0.06 0.06 0.09 0.39 0.74 0.98 1.03 0.56 0.60 1.04 0.90 0.72 0.74 0.89 0.91 0.87 0.92 0.97 1.19 1.32 1.42 1.53 1.65 1.73 1.83 2.03 2.31 2.38 2.34 2.32 2.37 2.32 2.26 2.15 2.09 1.92 1.69 1.46 1.18
0.16 0.21 0.12 0.07 0.07 0.07 0.08 0.09 0.34 0.62 0.75 0.82 0.67 1.01 1.45 0.97 0.75 0.79 0.82 0.80 0.75 0.75 0.74 0.88 1.08 1.27 1.33 1.37 1.46 1.55 1.80 1.96 2.01 1.91 1.98 2.09 2.08 2.13 2.03 2.05 1.85 1.56 1.34 1.22
0.11 0.11 0.07 0.07 0.10 0.10 0.09 0.08 0.14 0.28 0.37 0.59 0.83 1.13 1.17 0.72 0.63 0.72 0.74 0.72 0.76 0.76 0.72 0.77 0.83 0.98 1.04 1.07 1.15 1.26 1.60 1.80 1.85 1.82 1.89 1.97 2.01 1.98 1.87 1.76 1.60 1.37 1.33 1.28
0.04 0.06 0.08 0.07 0.08 0.10 0.10 0.11 0.16 0.22 0.35 0.57 0.79 1.09 1.24 0.86 0.70 0.52 0.47 0.50 0.47 0.48 0.52 0.56 0.55 0.62 0.74 0.90 1.08 1.22 1.32 1.52 1.68 1.71 1.72 1.74 1.84 1.76 1.64 1.57 1.39 1.21 1.12 1.15
0.04 0.04 0.07 0.08 0.11 0.13 0.13 0.11 0.13 0.17 0.20 0.38 0.79 1.02 0.82 0.68 0.57 0.53 0.47 0.50 0.45 0.39 0.40 0.44 0.50 0.55 0.69 0.81 0.97 1.13 1.18 1.30 1.43 1.49 1.58 1.56 1.52 1.54 1.52 1.40 1.24 1.17 1.12 1.10
0.04 0.04 0.06 0.13 0.18 0.16 0.14 0.11 0.13 0.17 0.17 0.24 0.43 0.64 0.51 0.57 0.57 0.50 0.49 0.55 0.58 0.53 0.47 0.48 0.55 0.61 0.71 0.80 0.85 0.91 0.98 1.09 1.23 1.39 1.57 1.63 1.57 1.56 1.49 1.31 1.18 1.14 1.12 1.13
0.05 0.05 0.10 0.28 0.40 0.26 0.16 0.12 0.12 0.14 0.11 0.19 0.39 0.62 0.41 0.36 0.45 0.60 0.82 1.00 0.81 0.62 0.53 0.55 0.59 0.58 0.64 0.73 0.81 0.76 0.80 0.93 1.09 1.32 1.65 1.79 1.75 1.64 1.51 1.34 1.16 1.09 1.10 1.15
0.08 0.06 0.10 0.30 0.42 0.36 0.26 0.17 0.13 0.11 0.13 0.17 0.25 0.50 0.45 0.41 0.46 0.60 0.75 0.72 0.73 0.66 0.59 0.65 0.61 0.66 0.70 0.68 0.76 0.76 0.79 0.85 0.99 1.17 1.41 1.52 1.42 1.34 1.28 1.19 1.08 1.02 1.03 1.10
0.12 0.08 0.07 0.12 0.21 0.24 0.24 0.22 0.18 0.14 0.12 0.21 0.25 0.36 0.43 0.43 0.55 0.68 0.80 0.79 0.78 0.65 0.53 0.54 0.51 0.57 0.64 0.66 0.73 0.68 0.63 0.63 0.73 0.91 1.03 1.14 1.13 1.08 1.04 1.04 1.03 0.98 1.07 1.12
0.17 0.18 0.14 0.16 0.19 0.24 0.27 0.25 0.18 0.13 0.11 0.16 0.24 0.37 0.47 0.54 0.62 0.66 0.61 0.54 0.52 0.47 0.36 0.35 0.44 0.51 0.51 0.51 0.55 0.47 0.49 0.58 0.69 0.80 0.90 1.03 1.14 1.12 1.04 1.01 1.03 1.00 1.08 1.13
0.23 0.26 0.25 0.24 0.23 0.24 0.34 0.33 0.24 0.15 0.14 0.20 0.32 0.47 0.61 0.52 0.51 0.57 0.53 0.52 0.51 0.46 0.31 0.26 0.30 0.39 0.41 0.44 0.42 0.45 0.53 0.64 0.75 0.86 0.92 1.03 1.14 1.19 1.15 1.07 1.13 1.13 1.19 1.26
0.38 0.40 0.32 0.30 0.41 0.50 0.37 0.30 0.29 0.28 0.26 0.27 0.39 0.41 0.52 0.52 0.58 0.67 0.63 0.58 0.46 0.40 0.32 0.25 0.25 0.28 0.35 0.41 0.48 0.55 0.66 0.81 0.88 0.94 1.01 1.13 1.23 1.24 1.24 1.26 1.32 1.42 1.48 1.48
0.32 0.48 0.46 0.45 0.58 0.50 0.44 0.32 0.36 0.40 0.53 0.54 0.61 0.55 0.51 0.51 0.58 0.65 0.56 0.48 0.46 0.38 0.34 0.32 0.29 0.36 0.44 0.48 0.52 0.68 0.84 1.00 1.05 1.03 1.08 1.19 1.31 1.38 1.45 1.50 1.51 1.56 1.63 1.59
0.34 0.48 0.60 0.57 0.71 0.70 0.60 0.47 0.46 0.57 0.98 0.81 0.74 0.70 0.60 0.59 0.68 0.70 0.62 0.55 0.50 0.43 0.41 0.40 0.39 0.47 0.57 0.63 0.68 0.81 0.91 1.00 1.13 1.19 1.31 1.48 1.64 1.68 1.73 1.87 1.95 1.86 1.77 1.66
0.61 0.69 0.73 0.72 0.77 0.82 0.72 0.66 0.67 1.05 1.29 0.98 0.83 0.79 0.76 0.84 0.85 0.79 0.69 0.65 0.59 0.51 0.50 0.47 0.47 0.55 0.68 0.79 0.88 1.00 1.13 1.22 1.21 1.29 1.44 1.65 1.80 1.88 1.95 2.09 2.17 2.15 2.13 2.10
0.78 0.85 0.84 0.85 1.01 1.15 0.82 0.78 1.14 1.36 1.16 1.16 1.13 1.05 0.93 0.87 0.83 0.77 0.69 0.67 0.61 0.58 0.60 0.59 0.59 0.70 0.84 0.97 1.02 1.12 1.18 1.21 1.24 1.30 1.42 1.55 1.69 1.72 1.80 2.02 2.14 2.21 2.24 2.21
0.80 0.91 0.97 1.06 1.18 1.10 0.88 0.94 1.14 1.25 1.39 1.32 1.22 1.21 1.05 0.98 0.88 0.77 0.68 0.63 0.59 0.57 0.60 0.61 0.66 0.84 1.00 1.12 1.20 1.27 1.20 1.27 1.32 1.38 1.50 1.61 1.70 1.78 1.87 1.92 1.92 2.00 2.09 2.09
0.91 0.81 1.00 1.19 1.25 1.17 1.01 0.86 0.84 0.98 1.09 1.06 1.03 1.04 1.02 0.99 0.92 0.81 0.67 0.56 0.53 0.53 0.48 0.52 0.61 0.72 0.82 0.92 1.03 1.17 1.26 1.34 1.41 1.48 1.52 1.59 1.70 1.74 1.76 1.88 1.96 2.02 2.12 2.22
1.07 0.94 1.14 1.40 1.29 1.12 1.18 1.10 0.99 1.04 1.12 1.05 0.97 0.93 0.93 0.90 0.86 0.71 0.63 0.56 0.51 0.49 0.48 0.51 0.61 0.66 0.73 0.78 0.86 0.96 1.06 1.19 1.29 1.36 1.42 1.47 1.51 1.59 1.66 1.71 1.79 1.81 1.87 1.86
1.10 1.09 1.35 1.59 1.41 1.28 1.27 1.15 1.04 1.10 1.07 1.10 1.11 1.08 0.89 0.79 0.81 0.75 0.67 0.58 0.55 0.55 0.54 0.57 0.61 0.62 0.66 0.71 0.84 0.94 1.03 1.18 1.32 1.42 1.44 1.40 1.38 1.43 1.48 1.51 1.49 1.47 1.39 1.36

GEFSCGP_prec_meanprecacc_192.txt.gz
Total_Precipitation_Accumulation
0.00 0.00 0.01 0.01 0.02 0.02 0.04 0.06 0.09 0.12 0.10 0.12 0.23 0.50 0.74 0.84 1.11 1.10 1.13 1.28 1.42 1.55 1.84 2.22 2.51 3.09 3.71 4.09 4.46 4.59 4.55 4.40 4.18 3.75 3.41 3.16 2.93 2.76 2.50 2.32 2.22 2.09 1.99 2.09
0.01 0.03 0.02 0.01 0.02 0.02 0.04 0.07 0.10 0.14 0.13 0.17 0.33 0.54 0.82 0.85 0.93 1.01 0.94 0.98 1.16 1.52 1.76 2.25 2.50 2.71 3.22 3.75 4.19 4.47 4.59 4.45 4.06 3.62 3.35 3.19 3.13 2.78 2.49 2.43 2.43 2.23 2.24 2.22
0.01 0.02 0.02 0.01 0.02 0.04 0.06 0.07 0.10 0.10 0.12 0.24 0.35 0.73 0.99 0.88 0.86 0.90 0.92 0.98 1.15 1.61 2.04 2.28 2.42 2.56 2.82 3.27 3.58 3.70 3.84 3.78 3.59 3.57 3.52 3.40 3.34 2.91 2.72 2.69 2.66 2.47 2.44 2.36
0.01 0.01 0.02 0.03 0.04 0.04 0.08 0.06 0.06 0.07 0.14 0.34 0.38 0.83 1.26 1.09 0.94 1.01 1.09 1.06 1.34 1.66 1.69 1.79 2.07 2.38 2.61 2.84 3.15 3.38 3.43 3.36 3.24 3.30 3.28 3.13 2.92 2.73 2.78 2.98 2.92 2.63 2.40 2.18
0.03 0.03 0.03 0.04 0.04 0.04 0.06 0.05 0.06 0.09 0.16 0.32 0.40 0.61 1.11 1.14 1.18 1.09 1.11 1.24 1.46 1.45 1.43 1.52 1.72 2.03 2.16 2.44 2.69 2.96 3.22 3.28 3.19 3.20 3.12 3.09 2.94 2.88 2.89 2.80 2.69 2.42 2.17 1.87
0.04 0.04 0.04 0.03 0.03 0.04 0.05 0.06 0.12 0.18 0.31 0.65 0.52 0.52 0.96 1.12 1.01 0.93 1.00 1.05 1.23 1.24 1.26 1.43 1.61 1.84 1.94 2.06 2.18 2.30 2.53 2.78 2.90 2.89 2.84 2.83 2.74 2.70 2.60 2.39 2.20 1.97 1.78 1.53
0.09 0.10 0.08 0.05 0.05 0.06 0.06 0.09 0.39 0.74 0.98 1.03 0.56 0.60 1.05 0.92 0.73 0.74 0.90 0.92 0.87 0.92 0.97 1.19 1.32 1.42 1.54 1.65 1.73 1.84 2.05 2.36 2.44 2.39 2.39 2.47 2.44 2.41 2.29 2.21 2.05 1.83 1.56 1.27
0.16 0.21 0.12 0.07 0.07 0.07 0.08 0.09 0.34 0.62 0.75 0.82 0.67 1.01 1.45 0.97 0.75 0.79 0.82 0.80 0.75 0.75 0.74 0.88 1.08 1.28 1.34 1.37 1.46 1.57 1.81 1.99 2.05 1.95 2.06 2.20 2.19 2.25 2.15 2.18 1.99 1.68 1.42 1.29
0.11 0.11 0.07 0.07 0.10 0.10 0.09 0.08 0.14 0.28 0.37 0.59 0.83 1.13 1.17 0.72 0.63 0.72 0.74 0.72 0.76 0.76 0.72 0.77 0.83 0.98 1.04 1.07 1.15 1.27 1.61 1.82 1.88 1.85 1.95 2.03 2.08 2.07 1.98 1.89 1.73 1.48 1.42 1.35
0.04 0.06 0.08 0.07 0.08 0.10 0.10 0.11 0.16 0.22 0.35 0.58 0.79 1.09 1.24 0.86 0.70 0.52 0.47 0.50 0.47 0.48 0.52 0.56 0.55 0.62 0.74 0.90 1.08 1.23 1.34 1.54 1.71 1.74 1.77 1.79 1.90 1.84 1.74 1.68 1.51 1.32 1.22 1.25
0.04 0.04 0.07 0.08 0.11 0.13 0.13 0.11 0.13 0.17 0.21 0.40 0.79 1.02 0.82 0.68 0.57 0.53 0.47 0.50 0.45 0.39 0.40 0.44 0.50 0.55 0.69 0.81 0.97 1.14 1.19 1.33 1.46 1.53 1.63 1.63 1.60 1.63 1.64 1.52 1.34 1.27 1.25 1.24
0.04 0.04 0.06 0.13 0.18 0.16 0.14 0.11 0.13 0.17 0.17 0.24 0.43 0.64 0.51 0.57 0.57 0.50 0.50 0.56 0.58 0.53 0.47 0.48 0.57 0.62 0.71 0.80 0.85 0.92 1.00 1.11 1.26 1.43 1.62 1.70 1.66 1.67 1.62 1.45 1.29 1.24 1.26 1.30
0.05 0.05 0.11 0.28 0.40 0.26 0.16 0.12 0.12 0.14 0.11 0.19 0.39 0.62 0.42 0.36 0.45 0.60 0.82 1.00 0.81 0.62 0.53 0.55 0.60 0.58 0.64 0.73 0.81 0.76 0.81 0.95 1.12 1.37 1.71 1.88 1.85 1.77 1.67 1.49 1.29 1.21 1.23 1.30
0.08 0.06 0.10 0.30 0.42 0.36 0.26 0.17 0.13 0.11 0.13 0.17 0.25 0.50 0.45 0.41 0.46 0.60 0.75 0.72 0.73 0.66 0.59 0.65 0.61 0.67 0.70 0.69 0.77 0.77 0.82 0.88 1.04 1.24 1.48 1.59 1.50 1.45 1.41 1.33 1.22 1.15 1.16 1.23
0.12 0.08 0.07 0.12 0.21 0.24 0.24 0.22 0.18 0.14 0.12 0.21 0.25 0.36 0.43 0.43 0.55 0.68 0.80 0.80 0.78 0.65 0.54 0.54 0.51 0.57 0.64 0.67 0.75 0.71 0.68 0.69 0.81 0.99 1.09 1.20 1.20 1.17 1.14 1.15 1.15 1.13 1.22 1.25
0.18 0.18 0.14 0.16 0.19 0.24 0.27 0.25 0.18 0.13 0.11 0.16 0.24 0.37 0.48 0.54 0.62 0.67 0.61 0.55 0.53 0.47 0.36 0.35 0.45 0.52 0.52 0.53 0.58 0.53 0.57 0.67 0.78 0.87 0.97 1.11 1.21 1.20 1.14 1.12 1.14 1.12 1.19 1.25
0.23 0.27 0.25 0.24 0.24 0.24 0.34 0.33 0.24 0.15 0.14 0.20 0.32 0.47 0.61 0.52 0.51 0.57 0.53 0.52 0.51 0.47 0.31 0.26 0.31 0.39 0.42 0.45 0.48 0.58 0.69 0.78 0.87 0.95 1.01 1.13 1.22 1.26 1.24 1.17 1.22 1.23 1.29 1.36
0.39 0.40 0.33 0.30 0.41 0.50 0.37 0.30 0.29 0.28 0.26 0.27 0.40 0.41 0.52 0.52 0.58 0.67 0.63 0.58 0.46 0.40 0.32 0.25 0.25 0.29 0.36 0.44 0.53 0.67 0.89 1.01 1.02 1.06 1.11 1.24 1.33 1.31 1.32 1.33 1.39 1.49 1.56 1.58
0.33 0.49 0.47 0.46 0.58 0.50 0.44 0.32 0.36 0.40 0.53 0.54 0.62 0.58 0.51 0.51 0.58 0.65 0.56 0.48 0.46 0.38 0.35 0.33 0.30 0.38 0.46 0.51 0.56 0.74 0.93 1.12 1.18 1.15 1.19 1.32 1.41 1.45 1.51 1.57 1.58 1.63 1.70 1.66
0.34 0.49 0.61 0.58 0.72 0.71 0.60 0.47 0.46 0.57 0.98 0.81 0.74 0.74 0.61 0.59 0.69 0.72 0.65 0.56 0.51 0.44 0.43 0.43 0.42 0.50 0.61 0.66 0.73 0.87 0.98 1.09 1.23 1.29 1.40 1.55 1.71 1.74 1.79 1.94 2.01 1.93 1.86 1.74
0.61 0.70 0.73 0.73 0.78 0.84 0.72 0.66 0.68 1.05 1.31 0.99 0.84 0.81 0.76 0.84 0.86 0.80 0.71 0.68 0.62 0.53 0.52 0.49 0.50 0.59 0.73 0.84 0.93 1.05 1.19 1.28 1.26 1.33 1.48 1.70 1.85 1.93 2.00 2.13 2.21 2.20 2.18 2.15
0.78 0.86 0.85 0.86 1.03 1.19 0.83 0.79 1.16 1.39 1.16 1.16 1.13 1.05 0.93 0.88 0.84 0.78 0.70 0.68 0.63 0.59 0.63 0.62 0.63 0.76 0.90 1.02 1.05 1.14 1.22 1.25 1.29 1.33 1.45 1.58 1.72 1.76 1.84 2.06 2.16 2.24 2.27 2.24
0.82 0.93 1.00 1.11 1.23 1.13 0.91 0.97 1.14 1.25 1.39 1.32 1.23 1.21 1.05 0.98 0.89 0.78 0.69 0.64 0.60 0.57 0.62 0.65 0.70 0.89 1.07 1.19 1.23 1.29 1.22 1.29 1.34 1.40 1.53 1.65 1.74 1.81 1.90 1.95 1.94 2.03 2.11 2.11
0.93 0.83 1.02 1.24 1.28 1.18 1.02 0.89 0.84 0.98 1.10 1.07 1.03 1.05 1.03 1.00 0.92 0.81 0.68 0.57 0.55 0.54 0.50 0.54 0.65 0.75 0.86 0.96 1.06 1.19 1.28 1.36 1.42 1.49 1.54 1.61 1.73 1.76 1.79 1.90 1.98 2.04 2.15 2.24
1.09 0.95 1.17 1.45 1.32 1.14 1.20 1.12 1.00 1.05 1.13 1.06 0.98 0.93 0.93 0.91 0.87 0.73 0.66 0.59 0.53 0.51 0.50 0.53 0.63 0.67 0.74 0.81 0.88 0.98 1.08 1.21 1.30 1.37 1.43 1.49 1.53 1.61 1.68 1.73 1.81 1.82 1.90 1.89
1.11 1.12 1.38 1.65 1.44 1.31 1.30 1.17 1.05 1.10 1.08 1.11 1.12 1.09 0.90 0.80 0.84 0.77 0.69 0.60 0.58 0.57 0.56 0.59 0.62 0.63 0.67 0.72 0.85 0.96 1.06 1.20 1.34 1.44 1.46 1.41 1.39 1.45 1.50 1.53 1.52 1.49 1.42 1.39

GEFSCGP_prec_meanprecacc_198.txt.gz
Total_Precipitation_Accumulation
0.00 0.00 0.01 0.01 0.02 0.02 0.04 0.06 0.09 0.12 0.10 0.12 0.24 0.50 0.76 0.85 1.13 1.11 1.14 1.29 1.43 1.56 1.86 2.27 2.56 3.12 3.74 4.11 4.48 4.60 4.57 4.42 4.20 3.77 3.42 3.17 2.94 2.79 2.53 2.34 2.24 2.11 2.01 2.10
0.01 0.03 0.02 0.01 0.02 0.02 0.04 0.07 0.10 0.14 0.13 0.17 0.33 0.55 0.83 0.86 0.96 1.03 0.95 0.98 1.17 1.53 1.78 2.30 2.59 2.78 3.26 3.78 4.22 4.48 4.61 4.46 4.08 3.63 3.37 3.21 3.15 2.81 2.51 2.46 2.46 2.26 2.26 2.24
0.01 0.02 0.02 0.01 0.02 0.04 0.06 0.07 0.10 0.10 0.13 0.24 0.35 0.74 1.00 0.92 0.89 0.93 0.93 0.99 1.16 1.62 2.06 2.32 2.51 2.67 2.94 3.32 3.61 3.72 3.86 3.80 3.62 3.60 3.56 3.45 3.38 2.95 2.78 2.74 2.70 2.52 2.48 2.40
0.01 0.01 0.02 0.03 0.04 0.04 0.08 0.07 0.06 0.07 0.14 0.34 0.38 0.84 1.26 1.11 0.97 1.04 1.11 1.07 1.35 1.68 1.71 1.86 2.17 2.48 2.64 2.86 3.17 3.40 3.44 3.38 3.27 3.34 3.33 3.17 2.95 2.77 2.84 3.05 2.99 2.69 2.47 2.26
0.03 0.03 0.03 0.04 0.04 0.04 0.06 0.06 0.06 0.09 0.16 0.32 0.40 0.61 1.11 1.15 1.20 1.12 1.15 1.27 1.48 1.52 1.46 1.56 1.76 2.07 2.18 2.45 2.70 2.97 3.23 3.30 3.23 3.24 3.15 3.13 2.99 2.95 2.95 2.87 2.75 2.49 2.25 1.95
0.04 0.04 0.04 0.03 0.03 0.04 0.05 0.06 0.12 0.19 0.31 0.65 0.52 0.52 0.96 1.12 1.01 0.95 1.04 1.08 1.29 1.30 1.30 1.48 1.63 1.85 1.95 2.07 2.19 2.32 2.55 2.82 2.96 2.96 2.91 2.90 2.81 2.75 2.65 2.45 2.26 2.04 1.85 1.61
0.09 0.10 0.08 0.05 0.05 0.06 0.06 0.09 0.39 0.74 0.98 1.03 0.56 0.60 1.05 0.92 0.73 0.75 0.92 0.96 1.03 1.02 1.00 1.22 1.34 1.44 1.56 1.67 1.75 1.87 2.09 2.41 2.50 2.47 2.47 2.56 2.54 2.48 2.36 2.28 2.12 1.90 1.62 1.33
0.16 0.21 0.12 0.07 0.07 0.07 0.08 0.09 0.34 0.62 0.75 0.82 0.67 1.01 1.46 0.97 0.75 0.80 0.82 0.81 0.79 0.78 0.76 0.90 1.11 1.30 1.36 1.39 1.50 1.64 1.86 2.07 2.12 2.03 2.13 2.28 2.28 2.32 2.22 2.25 2.06 1.76 1.51 1.35
0.11 0.11 0.07 0.07 0.10 0.10 0.09 0.08 0.14 0.28 0.37 0.60 0.83 1.13 1.18 0.73 0.64 0.73 0.75 0.74 0.78 0.78 0.73 0.79 0.86 1.01 1.06 1.10 1.20 1.31 1.66 1.88 1.94 1.93 2.03 2.12 2.17 2.14 2.05 1.96 1.82 1.60 1.54 1.46
0.04 0.06 0.08 0.07 0.08 0.10 0.10 0.11 0.16 0.22 0.35 0.58 0.79 1.09 1.25 0.87 0.70 0.52 0.48 0.52 0.49 0.50 0.53 0.57 0.58 0.67 0.79 0.97 1.15 1.27 1.38 1.59 1.77 1.81 1.83 1.86 1.98 1.91 1.80 1.75 1.60 1.42 1.32 1.38
0.04 0.04 0.07 0.08 0.11 0.13 0.13 0.11 0.13 0.17 0.21 0.40 0.79 1.02 0.83 0.69 0.58 0.53 0.50 0.54 0.46 0.40 0.41 0.45 0.53 0.65 0.77 0.87 1.02 1.18 1.23 1.37 1.50 1.58 1.68 1.70 1.67 1.72 1.74 1.63 1.44 1.35 1.34 1.36
0.04 0.04 0.06 0.13 0.18 0.16 0.14 0.11 0.13 0.17 0.17 0.25 0.44 0.66 0.53 0.58 0.59 0.51 0.54 0.60 0.60 0.54 0.47 0.49 0.61 0.73 0.77 0.86 0.94 0.99 1.06 1.18 1.32 1.49 1.69 1.77 1.76 1.77 1.71 1.55 1.40 1.37 1.40 1.44
0.05 0.06 0.11 0.28 0.40 0.26 0.16 0.12 0.12 0.14 0.11 0.19 0.40 0.63 0.44 0.38 0.47 0.63 0.87 1.05 0.84 0.64 0.54 0.57 0.64 0.65 0.68 0.78 0.89 0.85 0.90 1.06 1.24 1.47 1.80 1.95 1.93 1.83 1.74 1.59 1.40 1.33 1.37 1.45
0.08 0.06 0.10 0.30 0.43 0.36 0.26 0.17 0.13 0.11 0.13 0.17 0.25 0.51 0.46 0.43 0.49 0.65 0.83 0.77 0.76 0.69 0.61 0.67 0.66 0.74 0.74 0.72 0.81 0.82 0.88 0.98 1.20 1.38 1.56 1.65 1.56 1.51 1.51 1.45 1.34 1.26 1.27 1.35
0.12 0.08 0.07 0.12 0.21 0.24 0.24 0.22 0.18 0.14 0.12 0.21 0.25 0.37 0.44 0.46 0.57 0.74 0.87 0.86 0.82 0.66 0.57 0.58 0.54 0.62 0.69 0.69 0.78 0.75 0.73 0.78 0.91 1.09 1.19 1.29 1.29 1.27 1.26 1.27 1.26 1.24 1.33 1.37
0.18 0.18 0.14 0.16 0.19 0.24 0.27 0.25 0.18 0.13 0.11 0.16 0.24 0.37 0.49 0.56 0.65 0.71 0.64 0.58 0.55 0.49 0.38 0.37 0.48 0.54 0.56 0.55 0.60 0.56 0.61 0.74 0.88 0.98 1.07 1.23 1.34 1.34 1.29 1.26 1.26 1.25 1.30 1.36
0.24 0.27 0.26 0.25 0.24 0.25 0.34 0.33 0.24 0.15 0.14 0.20 0.32 0.48 0.64 0.54 0.54 0.59 0.55 0.54 0.54 0.49 0.34 0.29 0.35 0.43 0.47 0.50 0.51 0.60 0.73 0.85 0.95 1.07 1.16 1.29 1.35 1.40 1.40 1.34 1.40 1.37 1.41 1.49
0.39 0.41 0.33 0.31 0.42 0.51 0.37 0.30 0.29 0.28 0.26 0.27 0.40 0.42 0.55 0.56 0.61 0.71 0.67 0.63 0.51 0.47 0.37 0.32 0.32 0.35 0.42 0.48 0.56 0.70 0.96 1.15 1.15 1.26 1.34 1.44 1.51 1.50 1.51 1.52 1.54 1.60 1.67 1.69
0.33 0.49 0.47 0.46 0.60 0.51 0.44 0.32 0.36 0.40 0.54 0.55 0.63 0.60 0.54 0.55 0.64 0.69 0.58 0.51 0.51 0.44 0.40 0.39 0.36 0.42 0.51 0.55 0.59 0.78 0.99 1.20 1.30 1.33 1.39 1.49 1.55 1.61 1.69 1.74 1.70 1.74 1.80 1.76
0.34 0.49 0.62 0.58 0.73 0.72 0.61 0.47 0.46 0.57 1.01 0.83 0.76 0.78 0.65 0.60 0.72 0.76 0.70 0.62 0.56 0.51 0.49 0.49 0.48 0.56 0.68 0.74 0.78 0.91 1.03 1.15 1.31 1.37 1.48 1.63 1.80 1.83 1.89 2.03 2.09 2.01 1.93 1.82
0.62 0.70 0.74 0.73 0.79 0.85 0.73 0.67 0.68 1.07 1.35 1.02 0.86 0.83 0.79 0.87 0.87 0.82 0.73 0.72 0.67 0.57 0.56 0.54 0.55 0.64 0.79 0.89 0.99 1.11 1.24 1.33 1.32 1.38 1.52 1.75 1.91 1.99 2.04 2.18 2.26 2.25 2.22 2.18
0.79 0.86 0.86 0.87 1.06 1.21 0.85 0.81 1.19 1.44 1.21 1.20 1.16 1.07 0.96 0.93 0.87 0.80 0.72 0.71 0.65 0.62 0.66 0.66 0.68 0.81 0.96 1.09 1.13 1.20 1.26 1.29 1.31 1.35 1.48 1.61 1.76 1.79 1.87 2.08 2.19 2.26 2.29 2.26
0.83 0.94 1.03 1.15 1.27 1.17 0.98 1.06 1.21 1.32 1.47 1.40 1.28 1.24 1.08 1.03 0.92 0.81 0.71 0.67 0.64 0.62 0.67 0.70 0.76 0.95 1.13 1.28 1.34 1.39 1.28 1.33 1.37 1.43 1.55 1.68 1.76 1.83 1.92 1.97 1.96 2.04 2.13 2.13
0.95 0.85 1.06 1.30 1.36 1.28 1.14 1.00 0.93 1.06 1.17 1.15 1.13 1.10 1.05 1.02 0.95 0.84 0.71 0.62 0.60 0.59 0.55 0.60 0.69 0.79 0.90 1.09 1.25 1.34 1.37 1.41 1.46 1.52 1.56 1.63 1.74 1.77 1.80 1.91 1.98 2.05 2.16 2.26
1.13 1.00 1.22 1.51 1.42 1.31 1.33 1.21 1.08 1.14 1.20 1.12 1.05 1.00 0.97 0.93 0.89 0.75 0.68 0.62 0.59 0.57 0.55 0.59 0.67 0.70 0.77 0.85 0.95 1.04 1.13 1.25 1.32 1.38 1.44 1.50 1.53 1.61 1.68 1.73 1.82 1.83 1.91 1.91
1.18 1.17 1.45 1.78 1.55 1.39 1.39 1.30 1.17 1.20 1.16 1.20 1.24 1.20 0.97 0.85 0.87 0.81 0.72 0.63 0.61 0.60 0.60 0.63 0.66 0.66 0.71 0.75 0.89 0.99 1.08 1.22 1.36 1.46 1.49 1.43 1.40 1.45 1.50 1.53 1.52 1.50 1.43 1.40

GEFSCGP_prec_meanprecacc_204.txt.gz
Total_Precipitation_Accumulation
0.00 0.00 0.01 0.01 0.02 0.02 0.04 0.06 0.09 0.12 0.10 0.12 0.24 0.51 0.76 0.85 1.13 1.11 1.14 1.30 1.45 1.58 1.87 2.29 2.59 3.15 3.76 4.13 4.50 4.64 4.61 4.48 4.24 3.80 3.45 3.19 2.96 2.80 2.55 2.38 2.29 2.17 2.06 2.15
0.01 0.03 0.02 0.01 0.02 0.02 0.04 0.07 0.10 0.14 0.13 0.17 0.33 0.55 0.83 0.86 0.96 1.03 0.95 0.99 1.17 1.54 1.79 2.31 2.61 2.81 3.28 3.79 4.24 4.52 4.66 4.53 4.13 3.67 3.41 3.25 3.18 2.83 2.52 2.48 2.49 2.31 2.32 2.31
0.01 0.02 0.02 0.02 0.02 0.04 0.06 0.07 0.10 0.10 0.13 0.24 0.36 0.75 1.01 0.92 0.89 0.93 0.93 0.99 1.16 1.63 2.06 2.32 2.52 2.67 2.95 3.34 3.64 3.75 3.90 3.84 3.67 3.65 3.62 3.51 3.43 2.99 2.81 2.77 2.73 2.57 2.54 2.49
0.01 0.01 0.02 0.03 0.04 0.04 0.08 0.07 0.06 0.07 0.14 0.34 0.38 0.84 1.27 1.11 0.97 1.04 1.11 1.07 1.35 1.68 1.71 1.86 2.17 2.48 2.65 2.87 3.20 3.44 3.50 3.43 3.32 3.38 3.38 3.23 3.00 2.81 2.87 3.10 3.05 2.78 2.55 2.34
0.03 0.03 0.03 0.04 0.04 0.04 0.06 0.06 0.06 0.09 0.16 0.32 0.41 0.61 1.12 1.15 1.20 1.12 1.15 1.27 1.49 1.52 1.46 1.56 1.76 2.08 2.18 2.47 2.74 3.01 3.28 3.35 3.28 3.29 3.20 3.17 3.02 2.98 2.99 2.91 2.81 2.58 2.34 2.03
0.04 0.04 0.04 0.03 0.03 0.04 0.05 0.06 0.12 0.19 0.31 0.65 0.52 0.53 0.96 1.12 1.01 0.95 1.04 1.08 1.29 1.30 1.30 1.48 1.64 1.87 1.98 2.12 2.24 2.38 2.59 2.85 3.00 3.01 2.98 2.96 2.85 2.79 2.69 2.51 2.32 2.12 1.94 1.69
0.09 0.10 0.08 0.05 0.05 0.06 0.06 0.09 0.39 0.74 0.98 1.03 0.56 0.60 1.05 0.92 0.73 0.75 0.92 0.96 1.03 1.02 1.00 1.22 1.35 1.46 1.59 1.71 1.80 1.92 2.12 2.44 2.56 2.53 2.51 2.61 2.59 2.54 2.43 2.35 2.18 1.95 1.70 1.40
0.16 0.21 0.12 0.07 0.07 0.07 0.08 0.09 0.34 0.62 0.75 0.82 0.67 1.02 1.46 0.97 0.75 0.80 0.83 0.81 0.79 0.79 0.76 0.91 1.12 1.32 1.38 1.41 1.53 1.66 1.89 2.11 2.17 2.07 2.17 2.33 2.34 2.39 2.30 2.32 2.11 1.82 1.58 1.44
0.11 0.11 0.07 0.07 0.10 0.10 0.09 0.08 0.14 0.28 0.37 0.60 0.83 1.13 1.18 0.73 0.64 0.73 0.75 0.75 0.78 0.78 0.74 0.80 0.87 1.02 1.07 1.12 1.22 1.33 1.68 1.91 1.98 1.97 2.08 2.18 2.25 2.21 2.10 2.01 1.86 1.65 1.61 1.54
0.04 0.06 0.08 0.07 0.08 0.10 0.10 0.11 0.16 0.22 0.35 0.58 0.80 1.10 1.25 0.88 0.71 0.53 0.49 0.52 0.49 0.50 0.53 0.58 0.59 0.68 0.81 0.98 1.17 1.28 1.40 1.61 1.81 1.85 1.89 1.92 2.05 1.96 1.85 1.81 1.66 1.48 1.38 1.46
0.04 0.04 0.07 0.08 0.11 0.13 0.13 0.11 0.13 0.17 0.21 0.40 0.79 1.02 0.83 0.69 0.58 0.54 0.50 0.54 0.47 0.40 0.41 0.46 0.54 0.66 0.79 0.89 1.04 1.21 1.26 1.41 1.55 1.63 1.74 1.74 1.72 1.77 1.79 1.67 1.49 1.41 1.40 1.45
0.04 0.04 0.06 0.13 0.18 0.16 0.14 0.11 0.13 0.17 0.17 0.25 0.44 0.66 0.53 0.59 0.60 0.52 0.54 0.60 0.60 0.55 0.49 0.50 0.62 0.74 0.78 0.88 0.97 1.05 1.10 1.23 1.39 1.54 1.73 1.82 1.81 1.83 1.78 1.59 1.45 1.43 1.45 1.51
0.05 0.06 0.11 0.28 0.40 0.26 0.16 0.12 0.12 0.14 0.11 0.19 0.40 0.64 0.44 0.40 0.48 0.64 0.88 1.05 0.84 0.65 0.55 0.58 0.65 0.67 0.70 0.80 0.92 0.90 0.94 1.11 1.29 1.52 1.84 1.99 1.99 1.90 1.81 1.64 1.45 1.39 1.43 1.51
0.08 0.06 0.10 0.30 0.43 0.36 0.26 0.17 0.13 0.11 0.13 0.17 0.25 0.51 0.47 0.44 0.50 0.66 0.83 0.78 0.77 0.70 0.62 0.69 0.68 0.76 0.76 0.74 0.83 0.84 0.90 1.01 1.23 1.41 1.60 1.69 1.60 1.56 1.59 1.52 1.40 1.33 1.34 1.42
0.12 0.08 0.07 0.12 0.21 0.24 0.24 0.22 0.18 0.15 0.12 0.21 0.25 0.37 0.45 0.47 0.58 0.75 0.88 0.87 0.83 0.68 0.58 0.61 0.58 0.65 0.71 0.71 0.80 0.77 0.76 0.81 0.94 1.12 1.21 1.33 1.34 1.34 1.34 1.37 1.38 1.34 1.42 1.47
0.18 0.18 0.14 0.16 0.19 0.24 0.27 0.25 0.18 0.13 0.11 0.16 0.24 0.37 0.49 0.56 0.65 0.71 0.64 0.58 0.56 0.50 0.39 0.38 0.49 0.56 0.57 0.57 0.61 0.57 0.63 0.76 0.90 1.00 1.11 1.30 1.42 1.45 1.40 1.36 1.39 1.41 1.43 1.48
0.24 0.27 0.26 0.25 0.24 0.25 0.34 0.33 0.24 0.15 0.14 0.20 0.32 0.48 0.64 0.55 0.54 0.59 0.56 0.55 0.54 0.50 0.34 0.29 0.36 0.44 0.48 0.51 0.52 0.62 0.74 0.87 0.98 1.12 1.25 1.42 1.46 1.50 1.50 1.42 1.48 1.46 1.53 1.61
0.39 0.41 0.33 0.31 0.42 0.51 0.37 0.30 0.29 0.28 0.26 0.27 0.40 0.42 0.56 0.56 0.61 0.71 0.68 0.63 0.52 0.47 0.37 0.33 0.33 0.37 0.43 0.50 0.58 0.72 0.98 1.17 1.20 1.34 1.52 1.60 1.65 1.61 1.60 1.61 1.63 1.68 1.76 1.78
0.33 0.49 0.47 0.46 0.60 0.52 0.44 0.32 0.36 0.40 0.54 0.55 0.63 0.61 0.55 0.55 0.65 0.70 0.59 0.52 0.52 0.44 0.41 0.41 0.39 0.45 0.53 0.57 0.61 0.81 1.03 1.25 1.36 1.42 1.56 1.70 1.78 1.77 1.79 1.81 1.76 1.80 1.89 1.86
0.34 0.49 0.62 0.58 0.73 0.73 0.61 0.48 0.47 0.58 1.01 0.84 0.77 0.79 0.66 0.61 0.72 0.77 0.70 0.63 0.57 0.52 0.49 0.50 0.50 0.58 0.71 0.78 0.81 0.95 1.08 1.21 1.38 1.45 1.56 1.71 1.87 1.90 1.94 2.09 2.15 2.08 2.03 1.94
0.62 0.70 0.74 0.73 0.80 0.86 0.74 0.68 0.70 1.09 1.36 1.04 0.87 0.84 0.79 0.88 0.88 0.83 0.74 0.73 0.67 0.57 0.57 0.55 0.57 0.65 0.81 0.92 1.02 1.14 1.28 1.40 1.40 1.46 1.59 1.79 1.94 2.02 2.08 2.22 2.31 2.29 2.26 2.24
0.80 0.87 0.86 0.88 1.06 1.22 0.86 0.82 1.21 1.46 1.23 1.22 1.18 1.09 0.98 0.95 0.89 0.82 0.73 0.72 0.66 0.64 0.68 0.67 0.70 0.84 1.00 1.13 1.16 1.25 1.32 1.36 1.38 1.40 1.51 1.63 1.78 1.82 1.90 2.12 2.22 2.29 2.32 2.29
0.84 0.95 1.03 1.15 1.27 1.17 0.99 1.07 1.23 1.34 1.50 1.43 1.31 1.29 1.11 1.06 0.95 0.83 0.73 0.69 0.65 0.63 0.69 0.72 0.78 0.98 1.16 1.32 1.38 1.44 1.34 1.38 1.41 1.46 1.58 1.71 1.78 1.85 1.94 1.99 1.98 2.06 2.15 2.15
0.96 0.85 1.07 1.31 1.36 1.29 1.15 1.02 0.95 1.08 1.19 1.18 1.17 1.16 1.11 1.07 0.99 0.87 0.74 0.64 0.62 0.61 0.58 0.63 0.72 0.83 0.93 1.12 1.29 1.39 1.42 1.47 1.49 1.54 1.58 1.65 1.75 1.78 1.81 1.92 2.00 2.06 2.17 2.27
1.13 1.01 1.22 1.51 1.43 1.32 1.34 1.23 1.10 1.16 1.22 1.15 1.09 1.05 1.05 1.01 0.95 0.80 0.72 0.66 0.62 0.60 0.59 0.63 0.72 0.74 0.81 0.88 0.99 1.07 1.16 1.27 1.34 1.40 1.46 1.51 1.54 1.62 1.69 1.74 1.82 1.84 1.92 1.92
1.19 1.18 1.46 1.78 1.56 1.40 1.41 1.31 1.18 1.23 1.18 1.23 1.30 1.27 1.04 0.92 0.94 0.87 0.77 0.67 0.65 0.65 0.64 0.67 0.70 0.70 0.74 0.78 0.91 1.01 1.10 1.24 1.38 1.47 1.50 1.44 1.41 1.46 1.50 1.53 1.52 1.51 1.44 1.41

GEFSCGP_prec_meanprecacc_210.txt.gz
Total_Precipitation_Accumulation
0.00 0.00 0.01 0.01 0.02 0.02 0.04 0.06 0.09 0.12 0.10 0.12 0.24 0.51 0.76 0.85 1.13 1.11 1.14 1.30 1.45 1.58 1.88 2.29 2.59 3.16 3.77 4.14 4.52 4.66 4.64 4.51 4.26 3.83 3.49 3.24 3.02 2.87 2.62 2.44 2.36 2.22 2.10 2.20
0.01 0.03 0.02 0.01 0.02 0.02 0.04 0.07 0.10 0.14 0.13 0.17 0.33 0.55 0.83 0.86 0.96 1.03 0.95 0.99 1.18 1.54 1.79 2.32 2.61 2.82 3.29 3.80 4.26 4.54 4.68 4.55 4.15 3.69 3.45 3.30 3.23 2.88 2.58 2.53 2.54 2.36 2.37 2.36
0.01 0.02 0.02 0.02 0.02 0.04 0.06 0.07 0.10 0.10 0.13 0.24 0.36 0.75 1.01 0.92 0.89 0.93 0.93 0.99 1.16 1.63 2.06 2.33 2.52 2.68 2.95 3.34 3.65 3.77 3.91 3.87 3.69 3.67 3.65 3.55 3.48 3.03 2.85 2.82 2.78 2.63 2.58 2.52
0.01 0.01 0.02 0.03 0.04 0.04 0.08 0.07 0.06 0.07 0.14 0.34 0.38 0.84 1.27 1.11 0.97 1.04 1.11 1.07 1.35 1.68 1.71 1.86 2.17 2.49 2.65 2.88 3.23 3.46 3.51 3.45 3.34 3.41 3.41 3.26 3.04 2.85 2.93 3.16 3.10 2.83 2.58 2.38
0.03 0.03 0.03 0.04 0.04 0.05 0.06 0.06 0.06 0.09 0.16 0.32 0.41 0.61 1.12 1.15 1.20 1.12 1.15 1.27 1.49 1.52 1.46 1.56 1.77 2.08 2.19 2.50 2.78 3.03 3.29 3.36 3.29 3.31 3.22 3.19 3.06 3.04 3.05 2.97 2.87 2.63 2.39 2.07
0.04 0.04 0.04 0.03 0.03 0.04 0.05 0.06 0.12 0.19 0.31 0.65 0.52 0.53 0.96 1.12 1.01 0.95 1.04 1.08 1.29 1.30 1.30 1.48 1.64 1.87 1.98 2.14 2.25 2.39 2.59 2.86 3.00 3.03 3.00 2.99 2.91 2.86 2.77 2.59 2.39 2.19 2.01 1.74
0.09 0.10 0.08 0.05 0.05 0.06 0.06 0.09 0.39 0.74 0.98 1.03 0.56 0.60 1.05 0.92 0.73 0.75 0.92 0.96 1.03 1.02 1.01 1.22 1.35 1.46 1.59 1.71 1.80 1.92 2.12 2.45 2.57 2.54 2.53 2.64 2.67 2.65 2.55 2.45 2.24 2.01 1.76 1.46
0.16 0.21 0.12 0.07 0.07 0.07 0.08 0.09 0.34 0.62 0.75 0.82 0.67 1.02 1.46 0.97 0.75 0.80 0.83 0.81 0.79 0.79 0.76 0.91 1.12 1.32 1.38 1.42 1.54 1.67 1.90 2.11 2.18 2.09 2.21 2.41 2.47 2.53 2.41 2.40 2.17 1.88 1.66 1.53
0.11 0.11 0.07 0.07 0.10 0.10 0.09 0.08 0.14 0.28 0.37 0.60 0.83 1.13 1.18 0.73 0.64 0.73 0.75 0.75 0.78 0.78 0.74 0.80 0.87 1.02 1.07 1.13 1.22 1.33 1.68 1.91 1.99 1.99 2.13 2.25 2.32 2.27 2.16 2.06 1.91 1.71 1.69 1.63
0.04 0.06 0.08 0.07 0.08 0.10 0.10 0.11 0.16 0.22 0.35 0.58 0.80 1.10 1.25 0.88 0.71 0.53 0.49 0.53 0.49 0.50 0.53 0.59 0.59 0.68 0.81 0.99 1.17 1.28 1.40 1.62 1.82 1.86 1.90 1.94 2.07 2.00 1.90 1.86 1.70 1.54 1.46 1.53
0.04 0.04 0.07 0.08 0.11 0.13 0.13 0.11 0.13 0.17 0.21 0.40 0.79 1.02 0.83 0.69 0.58 0.54 0.50 0.54 0.47 0.40 0.41 0.46 0.55 0.67 0.79 0.89 1.04 1.21 1.27 1.41 1.56 1.64 1.75 1.76 1.74 1.80 1.82 1.70 1.53 1.46 1.46 1.50
0.04 0.04 0.06 0.13 0.18 0.16 0.14 0.11 0.13 0.17 0.17 0.25 0.44 0.66 0.53 0.59 0.60 0.52 0.54 0.60 0.60 0.55 0.49 0.50 0.63 0.74 0.78 0.88 0.97 1.05 1.11 1.24 1.40 1.55 1.74 1.83 1.83 1.85 1.80 1.62 1.48 1.47 1.50 1.56
0.05 0.06 0.11 0.28 0.40 0.26 0.16 0.12 0.12 0.14 0.11 0.19 0.40 0.64 0.45 0.40 0.49 0.64 0.88 1.05 0.84 0.65 0.55 0.58 0.65 0.67 0.70 0.80 0.92 0.91 0.94 1.11 1.30 1.52 1.85 2.01 2.00 1.93 1.83 1.66 1.48 1.43 1.46 1.55
0.08 0.06 0.10 0.30 0.43 0.36 0.26 0.17 0.13 0.11 0.13 0.17 0.25 0.51 0.47 0.44 0.50 0.66 0.83 0.78 0.77 0.70 0.62 0.69 0.69 0.76 0.76 0.74 0.83 0.84 0.91 1.02 1.24 1.43 1.61 1.71 1.62 1.59 1.60 1.54 1.43 1.35 1.36 1.44
0.12 0.08 0.07 0.12 0.21 0.24 0.24 0.22 0.18 0.15 0.12 0.21 0.25 0.37 0.45 0.47 0.58 0.75 0.88 0.88 0.84 0.69 0.58 0.61 0.59 0.65 0.71 0.72 0.80 0.77 0.76 0.82 0.96 1.13 1.24 1.37 1.37 1.36 1.36 1.39 1.40 1.36 1.45 1.49
0.18 0.18 0.14 0.16 0.19 0.24 0.27 0.25 0.18 0.13 0.11 0.16 0.24 0.37 0.49 0.56 0.65 0.71 0.65 0.59 0.57 0.51 0.40 0.39 0.50 0.57 0.58 0.58 0.62 0.58 0.63 0.76 0.91 1.02 1.13 1.33 1.45 1.48 1.45 1.41 1.44 1.45 1.48 1.53
0.24 0.27 0.26 0.25 0.24 0.25 0.34 0.33 0.24 0.15 0.14 0.20 0.32 0.48 0.64 0.55 0.54 0.60 0.56 0.55 0.54 0.50 0.34 0.30 0.36 0.46 0.50 0.52 0.53 0.62 0.75 0.87 0.99 1.13 1.28 1.46 1.54 1.61 1.61 1.49 1.51 1.49 1.56 1.65
0.39 0.41 0.33 0.31 0.42 0.51 0.37 0.30 0.29 0.28 0.26 0.28 0.40 0.42 0.56 0.56 0.61 0.71 0.68 0.63 0.52 0.47 0.37 0.33 0.34 0.38 0.44 0.51 0.58 0.72 0.98 1.18 1.21 1.36 1.55 1.65 1.74 1.69 1.66 1.64 1.66 1.72 1.80 1.83
0.33 0.49 0.47 0.46 0.60 0.52 0.44 0.32 0.36 0.40 0.54 0.55 0.63 0.61 0.55 0.55 0.65 0.70 0.59 0.52 0.52 0.44 0.41 0.41 0.40 0.45 0.54 0.58 0.62 0.81 1.03 1.26 1.38 1.44 1.59 1.75 1.84 1.85 1.85 1.87 1.82 1.85 1.93 1.90
0.34 0.49 0.62 0.59 0.73 0.73 0.61 0.48 0.47 0.58 1.02 0.85 0.78 0.80 0.67 0.62 0.73 0.77 0.71 0.63 0.57 0.52 0.50 0.50 0.50 0.59 0.71 0.78 0.82 0.95 1.08 1.22 1.39 1.48 1.60 1.76 1.95 1.98 2.02 2.14 2.20 2.11 2.06 1.97
0.62 0.70 0.74 0.73 0.80 0.86 0.74 0.68 0.71 1.10 1.37 1.05 0.88 0.84 0.80 0.89 0.89 0.84 0.74 0.73 0.68 0.58 0.57 0.55 0.57 0.65 0.81 0.93 1.03 1.15 1.29 1.41 1.43 1.49 1.61 1.81 1.96 2.04 2.10 2.24 2.32 2.31 2.29 2.27
0.80 0.87 0.87 0.88 1.06 1.22 0.86 0.83 1.22 1.48 1.24 1.23 1.18 1.09 0.98 0.95 0.90 0.83 0.75 0.72 0.67 0.64 0.69 0.68 0.70 0.84 1.00 1.13 1.17 1.25 1.33 1.37 1.40 1.42 1.53 1.65 1.80 1.84 1.92 2.14 2.23 2.31 2.34 2.31
0.84 0.95 1.03 1.15 1.27 1.17 0.99 1.07 1.23 1.37 1.53 1.44 1.31 1.29 1.12 1.07 0.96 0.86 0.76 0.71 0.67 0.65 0.70 0.74 0.79 0.99 1.18 1.33 1.39 1.45 1.35 1.40 1.42 1.47 1.59 1.72 1.80 1.86 1.96 2.00 2.00 2.08 2.17 2.16
0.96 0.86 1.07 1.31 1.36 1.29 1.15 1.02 0.95 1.09 1.20 1.19 1.18 1.17 1.12 1.08 1.01 0.90 0.76 0.66 0.63 0.64 0.61 0.66 0.74 0.85 0.96 1.15 1.31 1.40 1.43 1.47 1.50 1.54 1.59 1.66 1.77 1.79 1.82 1.93 2.01 2.07 2.18 2.28
1.14 1.02 1.23 1.52 1.44 1.33 1.34 1.24 1.10 1.16 1.23 1.15 1.10 1.06 1.06 1.04 0.98 0.83 0.75 0.67 0.63 0.61 0.61 0.65 0.74 0.76 0.82 0.90 1.00 1.08 1.16 1.28 1.35 1.40 1.46 1.51 1.54 1.63 1.70 1.75 1.83 1.85 1.93 1.93
1.20 1.19 1.47 1.79 1.56 1.41 1.41 1.32 1.20 1.23 1.19 1.24 1.30 1.28 1.07 0.95 0.97 0.89 0.78 0.68 0.67 0.66 0.66 0.69 0.72 0.73 0.76 0.79 0.93 1.03 1.11 1.25 1.38 1.48 1.51 1.44 1.42 1.47 1.51 1.54 1.53 1.52 1.45 1.43

GEFSCGP_prec_meanprecacc_216.txt.gz
Total_Precipitation_Accumulation
0.00 0.00 0.01 0.01 0.02 0.02 0.04 0.06 0.09 0.12 0.10 0.12 0.24 0.51 0.76 0.85 1.13 1.11 1.14 1.30 1.45 1.59 1.88 2.30 2.60 3.16 3.78 4.15 4.54 4.69 4.67 4.54 4.31 3.88 3.54 3.29 3.06 2.90 2.65 2.47 2.38 2.24 2.12 2.23
0.01 0.03 0.02 0.01 0.02 0.02 0.04 0.07 0.10 0.14 0.14 0.18 0.34 0.55 0.83 0.86 0.96 1.03 0.95 0.99 1.18 1.55 1.80 2.32 2.62 2.82 3.30 3.81 4.27 4.55 4.69 4.57 4.17 3.74 3.50 3.34 3.27 2.91 2.60 2.56 2.59 2.41 2.41 2.40
0.01 0.02 0.02 0.02 0.02 0.04 0.06 0.07 0.10 0.10 0.13 0.25 0.36 0.75 1.01 0.92 0.89 0.93 0.93 0.99 1.16 1.63 2.07 2.33 2.52 2.68 2.96 3.35 3.66 3.78 3.92 3.88 3.72 3.71 3.68 3.59 3.52 3.07 2.92 2.89 2.86 2.69 2.64 2.58
0.01 0.01 0.02 0.03 0.04 0.04 0.08 0.07 0.06 0.07 0.14 0.34 0.38 0.84 1.27 1.11 0.97 1.04 1.11 1.07 1.35 1.68 1.71 1.87 2.18 2.49 2.66 2.89 3.24 3.47 3.52 3.47 3.37 3.44 3.45 3.31 3.09 2.91 3.00 3.23 3.19 2.91 2.66 2.45
0.03 0.03 0.03 0.04 0.04 0.05 0.06 0.06 0.06 0.09 0.16 0.32 0.41 0.62 1.12 1.16 1.20 1.12 1.15 1.27 1.49 1.52 1.46 1.56 1.77 2.08 2.19 2.50 2.79 3.03 3.30 3.38 3.31 3.34 3.26 3.24 3.11 3.10 3.11 3.05 2.99 2.74 2.50 2.15
0.04 0.04 0.04 0.03 0.03 0.04 0.05 0.06 0.12 0.19 0.31 0.65 0.52 0.53 0.97 1.13 1.01 0.95 1.04 1.08 1.29 1.30 1.31 1.49 1.64 1.87 1.99 2.14 2.25 2.39 2.60 2.87 3.03 3.05 3.03 3.04 2.96 2.94 2.85 2.71 2.53 2.31 2.10 1.83
0.09 0.10 0.08 0.05 0.05 0.06 0.06 0.10 0.39 0.74 0.98 1.03 0.56 0.60 1.05 0.92 0.73 0.75 0.92 0.96 1.03 1.02 1.01 1.23 1.35 1.46 1.59 1.72 1.81 1.93 2.13 2.46 2.59 2.56 2.54 2.66 2.71 2.71 2.62 2.55 2.35 2.11 1.83 1.53
0.16 0.21 0.12 0.07 0.07 0.07 0.08 0.09 0.34 0.62 0.75 0.82 0.67 1.02 1.46 0.97 0.75 0.80 0.83 0.81 0.79 0.79 0.77 0.92 1.13 1.33 1.39 1.42 1.54 1.67 1.90 2.12 2.19 2.11 2.24 2.44 2.50 2.57 2.45 2.47 2.23 1.95 1.72 1.60
0.11 0.11 0.07 0.07 0.10 0.10 0.09 0.08 0.14 0.28 0.37 0.60 0.83 1.13 1.18 0.73 0.64 0.73 0.75 0.75 0.78 0.78 0.74 0.80 0.87 1.03 1.08 1.13 1.22 1.33 1.69 1.93 2.01 2.01 2.16 2.28 2.35 2.32 2.22 2.13 1.96 1.76 1.75 1.71
0.04 0.06 0.08 0.07 0.08 0.10 0.10 0.11 0.16 0.22 0.36 0.58 0.80 1.10 1.25 0.88 0.71 0.53 0.49 0.53 0.49 0.50 0.53 0.59 0.59 0.69 0.81 0.99 1.17 1.28 1.42 1.64 1.85 1.90 1.94 1.98 2.13 2.06 1.96 1.92 1.78 1.62 1.54 1.59
0.04 0.04 0.07 0.08 0.11 0.13 0.13 0.11 0.13 0.17 0.21 0.40 0.80 1.02 0.83 0.69 0.58 0.54 0.50 0.54 0.47 0.40 0.41 0.46 0.55 0.67 0.80 0.90 1.05 1.23 1.30 1.44 1.59 1.68 1.79 1.80 1.79 1.85 1.88 1.76 1.61 1.56 1.54 1.57
0.04 0.04 0.06 0.13 0.18 0.16 0.14 0.11 0.13 0.17 0.17 0.25 0.45 0.66 0.53 0.59 0.60 0.52 0.54 0.60 0.60 0.55 0.49 0.52 0.67 0.77 0.80 0.90 0.99 1.07 1.13 1.26 1.42 1.58 1.77 1.86 1.87 1.90 1.85 1.68 1.54 1.54 1.56 1.62
0.05 0.06 0.11 0.28 0.40 0.26 0.16 0.12 0.12 0.14 0.11 0.20 0.40 0.64 0.45 0.40 0.49 0.64 0.88 1.06 0.85 0.67 0.61 0.70 0.77 0.73 0.74 0.82 0.93 0.91 0.95 1.13 1.32 1.54 1.87 2.03 2.04 1.97 1.89 1.71 1.53 1.49 1.52 1.61
0.08 0.06 0.10 0.30 0.43 0.36 0.26 0.17 0.13 0.11 0.13 0.17 0.25 0.52 0.48 0.45 0.50 0.66 0.84 0.79 0.78 0.72 0.65 0.75 0.75 0.81 0.79 0.75 0.84 0.85 0.91 1.02 1.24 1.44 1.63 1.74 1.66 1.63 1.64 1.57 1.47 1.41 1.41 1.49
0.12 0.08 0.07 0.12 0.21 0.24 0.24 0.22 0.18 0.15 0.12 0.21 0.25 0.37 0.45 0.48 0.59 0.76 0.89 0.89 0.86 0.71 0.60 0.62 0.61 0.68 0.73 0.73 0.81 0.77 0.77 0.82 0.97 1.16 1.28 1.41 1.42 1.40 1.38 1.42 1.45 1.42 1.50 1.53
0.18 0.18 0.14 0.16 0.19 0.24 0.27 0.25 0.18 0.13 0.11 0.16 0.24 0.38 0.50 0.57 0.66 0.71 0.65 0.60 0.57 0.52 0.41 0.40 0.51 0.58 0.60 0.59 0.62 0.58 0.64 0.77 0.92 1.03 1.14 1.35 1.47 1.49 1.47 1.49 1.55 1.54 1.54 1.57
0.24 0.27 0.26 0.25 0.24 0.25 0.34 0.33 0.24 0.15 0.14 0.20 0.32 0.49 0.64 0.55 0.54 0.60 0.57 0.55 0.54 0.50 0.35 0.30 0.37 0.46 0.51 0.53 0.53 0.62 0.75 0.88 1.00 1.14 1.28 1.46 1.55 1.63 1.64 1.57 1.64 1.57 1.60 1.68
0.39 0.41 0.33 0.31 0.42 0.51 0.37 0.30 0.29 0.28 0.26 0.28 0.40 0.42 0.56 0.56 0.61 0.71 0.68 0.64 0.52 0.47 0.37 0.33 0.35 0.38 0.45 0.51 0.59 0.72 0.98 1.19 1.22 1.37 1.56 1.66 1.75 1.71 1.67 1.66 1.68 1.74 1.83 1.85
0.33 0.49 0.47 0.47 0.60 0.52 0.44 0.32 0.36 0.40 0.54 0.55 0.63 0.61 0.55 0.55 0.65 0.73 0.61 0.52 0.53 0.45 0.41 0.41 0.40 0.46 0.54 0.58 0.62 0.82 1.04 1.27 1.39 1.46 1.60 1.76 1.86 1.86 1.87 1.89 1.84 1.87 1.95 1.92
0.34 0.50 0.62 0.59 0.74 0.73 0.61 0.48 0.47 0.58 1.02 0.85 0.79 0.80 0.67 0.62 0.75 0.80 0.72 0.65 0.57 0.52 0.50 0.50 0.50 0.59 0.71 0.79 0.83 0.96 1.09 1.23 1.41 1.49 1.61 1.77 1.97 2.01 2.05 2.18 2.22 2.13 2.08 1.98
0.63 0.71 0.74 0.74 0.80 0.86 0.74 0.68 0.71 1.10 1.38 1.05 0.88 0.85 0.80 0.90 0.91 0.85 0.76 0.75 0.68 0.58 0.57 0.55 0.58 0.66 0.82 0.94 1.04 1.16 1.30 1.42 1.44 1.50 1.62 1.82 1.98 2.07 2.13 2.27 2.36 2.34 2.31 2.29
0.82 0.88 0.87 0.88 1.07 1.23 0.86 0.83 1.23 1.48 1.24 1.23 1.18 1.10 0.98 0.96 0.90 0.83 0.75 0.73 0.67 0.65 0.69 0.69 0.71 0.86 1.01 1.15 1.19 1.27 1.34 1.38 1.40 1.42 1.53 1.66 1.82 1.87 1.95 2.18 2.28 2.36 2.38 2.34
0.88 0.97 1.05 1.17 1.29 1.18 1.00 1.08 1.24 1.37 1.53 1.44 1.32 1.29 1.12 1.08 0.98 0.86 0.77 0.73 0.69 0.67 0.72 0.75 0.80 1.00 1.19 1.35 1.41 1.46 1.36 1.41 1.43 1.48 1.60 1.73 1.81 1.88 1.99 2.08 2.10 2.16 2.22 2.20
1.01 0.90 1.10 1.33 1.37 1.29 1.16 1.03 0.97 1.10 1.21 1.19 1.18 1.17 1.12 1.09 1.03 0.93 0.79 0.69 0.67 0.67 0.63 0.67 0.76 0.86 0.97 1.17 1.33 1.42 1.44 1.49 1.51 1.55 1.60 1.67 1.78 1.81 1.84 1.95 2.04 2.14 2.23 2.32
1.18 1.06 1.27 1.55 1.47 1.35 1.36 1.25 1.12 1.18 1.24 1.16 1.11 1.07 1.08 1.06 1.00 0.85 0.78 0.71 0.67 0.65 0.64 0.68 0.77 0.79 0.85 0.92 1.02 1.10 1.18 1.30 1.36 1.42 1.47 1.52 1.55 1.64 1.71 1.76 1.84 1.87 1.95 1.95
1.25 1.23 1.50 1.82 1.61 1.46 1.44 1.34 1.21 1.24 1.20 1.25 1.31 1.30 1.08 0.97 1.02 0.92 0.80 0.72 0.71 0.71 0.70 0.73 0.76 0.76 0.79 0.82 0.96 1.06 1.14 1.27 1.40 1.49 1.52 1.45 1.42 1.47 1.52 1.55 1.54 1.52 1.45 1.44

GEFSCGP_prec_meanprecacc_222.txt.gz
Total_Precipitation_Accumulation
0.00 0.01 0.01 0.01 0.02 0.02 0.04 0.06 0.09 0.12 0.11 0.14 0.27 0.53 0.79 0.89 1.16 1.12 1.15 1.30 1.46 1.60 1.89 2.31 2.61 3.17 3.79 4.16 4.55 4.70 4.68 4.55 4.33 3.91 3.56 3.30 3.07 2.91 2.66 2.49 2.40 2.27 2.14 2.24
0.01 0.03 0.02 0.02 0.02 0.02 0.04 0.07 0.10 0.15 0.15 0.19 0.37 0.59 0.89 0.89 0.98 1.04 0.95 0.99 1.18 1.55 1.80 2.33 2.62 2.83 3.30 3.82 4.28 4.56 4.70 4.58 4.18 3.75 3.51 3.35 3.29 2.92 2.62 2.58 2.60 2.43 2.44 2.44
0.01 0.02 0.02 0.02 0.02 0.04 0.06 0.07 0.10 0.10 0.14 0.27 0.40 0.79 1.06 0.96 0.91 0.94 0.93 0.99 1.17 1.63 2.07 2.33 2.52 2.68 2.96 3.35 3.66 3.78 3.93 3.89 3.72 3.72 3.70 3.61 3.54 3.08 2.93 2.91 2.88 2.72 2.68 2.63
0.01 0.02 0.02 0.03 0.04 0.05 0.08 0.07 0.06 0.07 0.14 0.34 0.40 0.86 1.30 1.15 1.01 1.06 1.12 1.07 1.35 1.68 1.71 1.87 2.18 2.49 2.66 2.89 3.24 3.47 3.53 3.48 3.38 3.46 3.47 3.33 3.11 2.92 3.01 3.26 3.23 2.96 2.71 2.50
0.03 0.03 0.03 0.04 0.04 0.05 0.07 0.06 0.06 0.09 0.16 0.33 0.42 0.65 1.19 1.24 1.25 1.14 1.16 1.27 1.49 1.52 1.46 1.57 1.77 2.08 2.19 2.50 2.79 3.04 3.31 3.39 3.32 3.35 3.27 3.25 3.12 3.11 3.14 3.08 3.03 2.78 2.54 2.20
0.04 0.04 0.04 0.03 0.03 0.04 0.05 0.06 0.12 0.19 0.31 0.66 0.52 0.53 1.00 1.18 1.03 0.97 1.07 1.10 1.29 1.30 1.31 1.49 1.65 1.87 1.99 2.15 2.26 2.40 2.61 2.88 3.03 3.06 3.03 3.05 2.98 2.96 2.89 2.75 2.58 2.36 2.16 1.88
0.09 0.10 0.08 0.05 0.05 0.06 0.06 0.10 0.39 0.74 0.98 1.03 0.56 0.60 1.06 0.93 0.74 0.75 0.94 0.99 1.05 1.03 1.01 1.23 1.36 1.47 1.61 1.73 1.83 1.95 2.15 2.47 2.61 2.57 2.56 2.68 2.73 2.75 2.65 2.59 2.41 2.17 1.89 1.59
0.16 0.21 0.12 0.07 0.07 0.07 0.08 0.10 0.34 0.62 0.75 0.82 0.67 1.02 1.46 0.98 0.76 0.80 0.84 0.85 0.83 0.80 0.77 0.93 1.14 1.35 1.41 1.45 1.57 1.70 1.93 2.15 2.22 2.14 2.26 2.47 2.55 2.64 2.52 2.53 2.28 2.02 1.81 1.69
0.11 0.11 0.07 0.07 0.11 0.11 0.09 0.08 0.14 0.28 0.37 0.60 0.84 1.14 1.19 0.74 0.65 0.74 0.76 0.77 0.84 0.81 0.75 0.82 0.90 1.07 1.12 1.18 1.30 1.44 1.78 2.05 2.12 2.11 2.23 2.35 2.43 2.42 2.33 2.21 2.05 1.86 1.87 1.81
0.04 0.06 0.08 0.07 0.09 0.11 0.10 0.11 0.16 0.22 0.37 0.60 0.81 1.11 1.26 0.89 0.72 0.53 0.49 0.53 0.51 0.53 0.54 0.61 0.66 0.76 0.88 1.10 1.36 1.50 1.62 1.89 2.01 2.02 2.04 2.07 2.24 2.20 2.09 2.02 1.87 1.73 1.64 1.68
0.04 0.04 0.07 0.08 0.11 0.13 0.13 0.12 0.14 0.17 0.21 0.41 0.81 1.04 0.84 0.70 0.59 0.54 0.50 0.54 0.47 0.40 0.41 0.49 0.62 0.76 0.92 1.07 1.24 1.34 1.39 1.53 1.67 1.75 1.87 1.87 1.88 1.95 1.98 1.86 1.69 1.63 1.60 1.63
0.04 0.04 0.06 0.13 0.18 0.16 0.14 0.12 0.13 0.17 0.17 0.26 0.47 0.68 0.55 0.61 0.60 0.52 0.54 0.60 0.60 0.56 0.50 0.54 0.72 0.88 1.00 1.13 1.15 1.16 1.20 1.32 1.47 1.63 1.82 1.92 1.93 1.96 1.92 1.74 1.60 1.59 1.61 1.68
0.05 0.06 0.11 0.28 0.40 0.27 0.16 0.13 0.13 0.14 0.12 0.20 0.41 0.65 0.46 0.41 0.50 0.65 0.89 1.07 0.86 0.67 0.62 0.72 0.81 0.83 0.86 0.93 1.02 0.99 1.01 1.17 1.35 1.57 1.91 2.07 2.07 2.00 1.92 1.74 1.55 1.51 1.55 1.65
0.08 0.06 0.10 0.30 0.43 0.36 0.26 0.17 0.13 0.11 0.13 0.17 0.26 0.52 0.48 0.47 0.52 0.68 0.86 0.80 0.79 0.74 0.69 0.80 0.80 0.86 0.85 0.81 0.89 0.88 0.93 1.04 1.26 1.45 1.65 1.76 1.68 1.64 1.65 1.58 1.49 1.44 1.46 1.54
0.12 0.08 0.07 0.12 0.21 0.24 0.24 0.22 0.18 0.15 0.12 0.21 0.26 0.37 0.45 0.48 0.61 0.77 0.91 0.91 0.88 0.72 0.62 0.69 0.69 0.75 0.77 0.77 0.84 0.80 0.78 0.84 0.98 1.16 1.28 1.42 1.42 1.40 1.39 1.45 1.49 1.51 1.59 1.59
0.18 0.18 0.14 0.16 0.19 0.24 0.27 0.25 0.19 0.13 0.11 0.16 0.24 0.38 0.50 0.57 0.67 0.74 0.71 0.64 0.59 0.54 0.44 0.42 0.58 0.67 0.63 0.62 0.64 0.60 0.65 0.79 0.94 1.04 1.15 1.35 1.48 1.51 1.49 1.52 1.60 1.64 1.62 1.62
0.24 0.27 0.26 0.25 0.24 0.25 0.34 0.33 0.24 0.15 0.14 0.20 0.32 0.49 0.65 0.55 0.55 0.61 0.63 0.61 0.57 0.54 0.38 0.32 0.40 0.55 0.54 0.54 0.55 0.64 0.78 0.90 1.02 1.16 1.30 1.49 1.58 1.66 1.67 1.61 1.70 1.65 1.65 1.70
0.39 0.41 0.33 0.31 0.42 0.51 0.37 0.30 0.29 0.29 0.26 0.28 0.40 0.42 0.56 0.56 0.61 0.73 0.73 0.71 0.55 0.49 0.39 0.34 0.36 0.40 0.47 0.53 0.60 0.74 1.00 1.20 1.24 1.38 1.57 1.69 1.78 1.74 1.71 1.70 1.73 1.79 1.87 1.89
0.33 0.49 0.47 0.47 0.60 0.52 0.44 0.32 0.36 0.41 0.54 0.55 0.63 0.61 0.56 0.55 0.66 0.74 0.64 0.57 0.57 0.47 0.43 0.42 0.41 0.47 0.55 0.59 0.63 0.83 1.05 1.28 1.41 1.47 1.61 1.78 1.87 1.89 1.91 1.93 1.87 1.92 2.00 1.96
0.34 0.50 0.62 0.59 0.74 0.73 0.61 0.48 0.47 0.58 1.02 0.86 0.79 0.80 0.68 0.63 0.76 0.82 0.79 0.72 0.65 0.57 0.53 0.52 0.52 0.60 0.73 0.81 0.85 0.98 1.11 1.24 1.42 1.51 1.62 1.79 2.00 2.05 2.09 2.20 2.25 2.18 2.12 2.02
0.63 0.71 0.74 0.74 0.80 0.87 0.74 0.68 0.71 1.10 1.38 1.07 0.90 0.86 0.82 0.91 0.93 0.88 0.79 0.79 0.72 0.61 0.63 0.60 0.61 0.69 0.85 0.97 1.06 1.18 1.32 1.44 1.45 1.52 1.65 1.84 2.01 2.11 2.16 2.30 2.39 2.37 2.34 2.32
0.83 0.88 0.87 0.88 1.07 1.24 0.87 0.83 1.23 1.49 1.25 1.24 1.20 1.11 1.00 0.97 0.92 0.88 0.78 0.75 0.69 0.67 0.72 0.72 0.75 0.89 1.07 1.19 1.21 1.28 1.35 1.40 1.42 1.44 1.54 1.67 1.84 1.89 1.97 2.20 2.31 2.38 2.41 2.37
0.90 0.99 1.06 1.17 1.29 1.19 1.00 1.09 1.26 1.38 1.54 1.45 1.33 1.30 1.13 1.10 1.01 0.91 0.81 0.76 0.72 0.69 0.74 0.78 0.83 1.04 1.27 1.40 1.43 1.48 1.37 1.42 1.45 1.49 1.62 1.74 1.83 1.89 2.01 2.10 2.12 2.19 2.26 2.22
1.03 0.92 1.11 1.35 1.39 1.30 1.17 1.05 0.99 1.12 1.23 1.21 1.20 1.19 1.14 1.11 1.05 0.96 0.83 0.74 0.71 0.70 0.66 0.70 0.79 0.88 0.99 1.18 1.34 1.43 1.46 1.51 1.53 1.57 1.62 1.68 1.80 1.83 1.86 1.97 2.06 2.16 2.26 2.34
1.22 1.09 1.31 1.59 1.50 1.37 1.38 1.27 1.15 1.23 1.29 1.21 1.14 1.11 1.12 1.09 1.03 0.89 0.83 0.79 0.74 0.69 0.67 0.71 0.80 0.81 0.86 0.94 1.04 1.12 1.21 1.33 1.39 1.45 1.50 1.55 1.57 1.65 1.73 1.77 1.85 1.87 1.96 1.97
1.32 1.28 1.57 1.90 1.66 1.49 1.47 1.36 1.24 1.29 1.26 1.33 1.39 1.35 1.15 1.04 1.09 1.00 0.86 0.76 0.74 0.73 0.72 0.76 0.78 0.78 0.81 0.85 0.99 1.10 1.18 1.32 1.44 1.52 1.54 1.47 1.43 1.48 1.53 1.56 1.55 1.54 1.47 1.46

GEFSCGP_prec_meanprecacc_228.txt.gz
Total_Precipitation_Accumulation
0.00 0.01 0.01 0.01 0.02 0.02 0.04 0.06 0.10 0.13 0.11 0.14 0.27 0.53 0.79 0.89 1.16 1.13 1.15 1.30 1.46 1.60 1.90 2.33 2.63 3.19 3.80 4.17 4.56 4.70 4.69 4.56 4.34 3.92 3.57 3.31 3.09 2.93 2.69 2.51 2.43 2.29 2.18 2.29
0.01 0.03 0.02 0.02 0.02 0.02 0.05 0.07 0.10 0.15 0.15 0.20 0.37 0.59 0.89 0.90 0.98 1.04 0.96 0.99 1.18 1.55 1.81 2.33 2.63 2.84 3.32 3.83 4.28 4.57 4.71 4.59 4.19 3.76 3.52 3.37 3.31 2.94 2.64 2.61 2.64 2.46 2.47 2.49
0.02 0.02 0.02 0.02 0.02 0.04 0.06 0.07 0.10 0.10 0.14 0.27 0.40 0.79 1.07 0.96 0.92 0.94 0.93 0.99 1.17 1.63 2.07 2.33 2.53 2.69 2.97 3.36 3.67 3.79 3.94 3.90 3.73 3.73 3.71 3.62 3.56 3.10 2.96 2.94 2.91 2.74 2.72 2.70
0.02 0.02 0.02 0.04 0.05 0.05 0.08 0.07 0.06 0.07 0.14 0.34 0.40 0.86 1.31 1.15 1.01 1.06 1.12 1.07 1.35 1.68 1.71 1.87 2.18 2.50 2.67 2.91 3.25 3.48 3.54 3.49 3.39 3.47 3.48 3.34 3.12 2.94 3.04 3.30 3.26 2.99 2.75 2.56
0.03 0.03 0.04 0.05 0.04 0.05 0.07 0.06 0.06 0.09 0.16 0.33 0.42 0.65 1.19 1.25 1.25 1.14 1.16 1.28 1.49 1.52 1.46 1.57 1.77 2.09 2.20 2.51 2.80 3.05 3.31 3.40 3.33 3.36 3.28 3.27 3.14 3.13 3.17 3.12 3.07 2.82 2.58 2.26
0.04 0.04 0.04 0.03 0.03 0.04 0.05 0.07 0.12 0.19 0.31 0.66 0.52 0.54 1.00 1.18 1.03 0.97 1.08 1.11 1.30 1.30 1.31 1.49 1.65 1.88 2.00 2.15 2.27 2.41 2.63 2.90 3.05 3.09 3.05 3.07 3.00 2.99 2.91 2.79 2.62 2.39 2.20 1.93
0.09 0.10 0.08 0.05 0.05 0.06 0.06 0.10 0.39 0.74 0.98 1.03 0.56 0.60 1.06 0.93 0.74 0.76 0.95 1.00 1.06 1.03 1.01 1.23 1.37 1.47 1.62 1.75 1.84 1.96 2.16 2.49 2.63 2.62 2.59 2.71 2.76 2.78 2.68 2.62 2.43 2.20 1.93 1.64
0.16 0.21 0.12 0.07 0.07 0.08 0.08 0.10 0.34 0.62 0.75 0.82 0.67 1.02 1.46 0.98 0.76 0.81 0.85 0.85 0.83 0.80 0.77 0.93 1.14 1.35 1.42 1.46 1.58 1.72 1.94 2.17 2.26 2.21 2.32 2.52 2.59 2.67 2.55 2.56 2.31 2.05 1.84 1.74
0.11 0.11 0.08 0.07 0.11 0.11 0.09 0.08 0.15 0.28 0.37 0.60 0.84 1.14 1.19 0.74 0.65 0.74 0.77 0.77 0.84 0.81 0.75 0.82 0.90 1.07 1.13 1.19 1.31 1.46 1.81 2.08 2.17 2.20 2.33 2.41 2.48 2.46 2.36 2.27 2.10 1.90 1.91 1.86
0.04 0.06 0.08 0.07 0.09 0.11 0.10 0.11 0.16 0.23 0.37 0.60 0.81 1.11 1.26 0.89 0.72 0.53 0.49 0.53 0.51 0.53 0.54 0.61 0.66 0.76 0.89 1.10 1.36 1.52 1.65 1.94 2.06 2.06 2.13 2.14 2.29 2.24 2.13 2.07 1.91 1.77 1.68 1.73
0.04 0.04 0.07 0.08 0.11 0.13 0.13 0.12 0.14 0.17 0.22 0.41 0.81 1.04 0.84 0.70 0.59 0.54 0.50 0.54 0.47 0.40 0.42 0.49 0.62 0.76 0.93 1.08 1.24 1.34 1.40 1.55 1.69 1.79 1.96 1.93 1.91 1.99 2.03 1.90 1.73 1.67 1.64 1.68
0.04 0.04 0.06 0.13 0.18 0.16 0.14 0.12 0.13 0.18 0.18 0.26 0.47 0.68 0.55 0.61 0.60 0.52 0.54 0.60 0.60 0.56 0.50 0.55 0.72 0.89 1.01 1.14 1.15 1.17 1.23 1.36 1.50 1.66 1.86 1.95 1.96 2.00 1.97 1.79 1.65 1.63 1.64 1.70
0.05 0.06 0.11 0.28 0.40 0.27 0.16 0.13 0.13 0.14 0.12 0.20 0.41 0.65 0.46 0.41 0.50 0.65 0.90 1.07 0.86 0.68 0.63 0.73 0.81 0.84 0.87 0.94 1.02 1.00 1.02 1.19 1.36 1.58 1.91 2.08 2.08 2.02 1.94 1.76 1.56 1.52 1.57 1.68
0.08 0.06 0.10 0.30 0.43 0.36 0.26 0.17 0.13 0.11 0.14 0.17 0.26 0.52 0.48 0.47 0.52 0.68 0.86 0.81 0.80 0.75 0.69 0.80 0.81 0.87 0.86 0.82 0.90 0.89 0.94 1.04 1.26 1.46 1.65 1.77 1.69 1.65 1.66 1.59 1.50 1.45 1.48 1.56
0.12 0.08 0.07 0.12 0.21 0.24 0.24 0.22 0.18 0.15 0.12 0.22 0.26 0.37 0.45 0.48 0.61 0.78 0.92 0.92 0.88 0.72 0.63 0.69 0.70 0.76 0.79 0.79 0.86 0.81 0.79 0.84 0.98 1.16 1.28 1.42 1.43 1.41 1.40 1.46 1.51 1.53 1.62 1.62
0.18 0.18 0.14 0.16 0.19 0.24 0.27 0.25 0.19 0.13 0.12 0.16 0.24 0.38 0.50 0.57 0.67 0.74 0.71 0.65 0.59 0.54 0.45 0.43 0.59 0.68 0.64 0.63 0.66 0.61 0.66 0.79 0.94 1.04 1.15 1.35 1.48 1.51 1.51 1.55 1.63 1.68 1.68 1.68
0.24 0.27 0.26 0.25 0.24 0.25 0.34 0.33 0.24 0.15 0.14 0.20 0.32 0.49 0.65 0.55 0.55 0.62 0.63 0.61 0.57 0.54 0.39 0.34 0.41 0.55 0.55 0.56 0.56 0.66 0.79 0.91 1.02 1.16 1.30 1.49 1.59 1.68 1.69 1.65 1.74 1.71 1.71 1.75
0.40 0.41 0.33 0.31 0.42 0.51 0.37 0.30 0.29 0.29 0.26 0.28 0.40 0.42 0.56 0.56 0.61 0.73 0.73 0.71 0.55 0.49 0.39 0.35 0.36 0.41 0.48 0.54 0.61 0.75 1.01 1.22 1.25 1.39 1.58 1.69 1.80 1.77 1.75 1.74 1.75 1.82 1.89 1.91
0.33 0.49 0.47 0.47 0.60 0.52 0.44 0.32 0.36 0.41 0.54 0.55 0.64 0.61 0.56 0.56 0.66 0.75 0.65 0.57 0.57 0.47 0.43 0.42 0.41 0.48 0.57 0.61 0.65 0.86 1.08 1.30 1.43 1.49 1.62 1.79 1.89 1.93 1.96 1.98 1.92 1.96 2.04 1.99
0.34 0.50 0.62 0.59 0.74 0.73 0.61 0.48 0.47 0.58 1.02 0.86 0.79 0.81 0.69 0.64 0.76 0.83 0.79 0.72 0.66 0.58 0.54 0.53 0.54 0.63 0.77 0.86 0.90 1.03 1.15 1.27 1.44 1.53 1.65 1.82 2.03 2.09 2.14 2.27 2.33 2.25 2.20 2.08
0.63 0.71 0.74 0.74 0.80 0.87 0.74 0.68 0.71 1.11 1.38 1.07 0.90 0.86 0.83 0.92 0.93 0.89 0.80 0.80 0.74 0.63 0.64 0.62 0.64 0.75 0.94 1.09 1.15 1.24 1.36 1.47 1.48 1.56 1.69 1.88 2.04 2.13 2.19 2.34 2.43 2.41 2.38 2.36
0.83 0.89 0.88 0.89 1.07 1.24 0.87 0.83 1.24 1.49 1.25 1.24 1.20 1.11 1.00 0.98 0.94 0.89 0.80 0.77 0.72 0.70 0.74 0.74 0.79 0.93 1.15 1.32 1.28 1.32 1.38 1.42 1.45 1.47 1.58 1.70 1.86 1.91 2.00 2.23 2.33 2.40 2.44 2.40
0.90 0.99 1.06 1.18 1.30 1.20 1.01 1.09 1.26 1.39 1.55 1.46 1.33 1.31 1.14 1.11 1.02 0.92 0.83 0.79 0.76 0.72 0.78 0.81 0.87 1.07 1.32 1.46 1.47 1.52 1.40 1.45 1.48 1.52 1.63 1.76 1.84 1.91 2.03 2.12 2.13 2.20 2.27 2.24
1.04 0.93 1.12 1.35 1.40 1.32 1.18 1.06 0.99 1.12 1.23 1.22 1.21 1.20 1.14 1.12 1.06 0.97 0.85 0.78 0.77 0.77 0.73 0.77 0.86 0.94 1.03 1.22 1.39 1.47 1.50 1.55 1.56 1.59 1.63 1.69 1.81 1.84 1.87 1.98 2.07 2.16 2.27 2.35
1.23 1.10 1.32 1.60 1.51 1.39 1.40 1.29 1.16 1.23 1.30 1.21 1.15 1.12 1.12 1.10 1.04 0.91 0.86 0.83 0.81 0.78 0.73 0.76 0.85 0.86 0.90 0.98 1.09 1.17 1.26 1.37 1.42 1.47 1.52 1.56 1.58 1.67 1.74 1.79 1.86 1.88 1.97 1.98
1.33 1.29 1.58 1.91 1.67 1.51 1.48 1.37 1.26 1.30 1.28 1.34 1.41 1.37 1.16 1.05 1.13 1.05 0.92 0.81 0.79 0.79 0.77 0.81 0.83 0.82 0.84 0.88 1.03 1.14 1.22 1.35 1.46 1.54 1.56 1.48 1.45 1.50 1.54 1.56 1.56 1.55 1.49 1.49